ECMWFFLT1_700_spd_117.txt.gz
Wind_Speed
63 63 62 61 60 61 62 62 61 61 62 62 60 60 61 62 63 63 62 59 57 56 56 55 55 55 53 52 51 51 52 52 53 54 54 54 54 54 54 54 56 59 60 58 56 56 56 54 54 54 54 54 54 53 50 48 47 47 48 48 48 47 46
62 62 62 62 61 62 63 63 63 63 62 60 59 59 61 62 63 63 61 59 57 56 55 55 55 55 54 52 51 51 51 51 51 52 53 53 53 54 54 54 55 57 59 59 56 55 55 54 53 52 52 52 52 51 49 47 46 46 46 45 45 45 44
61 61 62 63 63 64 64 64 63 61 59 58 58 59 61 62 62 61 60 58 56 56 55 55 56 55 54 53 52 52 51 51 50 51 52 52 52 53 54 54 54 55 56 57 56 54 54 54 53 52 52 52 51 49 47 46 46 45 45 43 43 43 43
61 62 62 63 64 65 65 63 61 58 57 57 58 59 60 61 61 60 58 57 56 55 55 55 55 54 53 53 53 52 51 50 50 50 51 51 51 52 53 53 53 53 54 55 55 54 53 54 54 52 51 51 50 48 46 46 46 45 44 42 41 42 42
59 61 63 64 64 63 61 58 56 56 56 58 59 59 60 60 59 58 56 55 55 55 54 54 54 53 52 53 53 53 51 50 50 50 50 51 51 52 52 52 52 52 51 53 54 53 52 53 54 53 51 50 49 47 45 45 44 44 44 42 40 41 41
57 59 61 61 60 58 56 54 55 56 57 58 58 59 59 59 58 56 55 55 55 55 54 53 53 52 52 52 52 52 51 50 49 50 51 51 50 51 51 51 50 50 50 51 53 53 52 53 53 53 51 49 48 47 45 44 43 43 43 42 40 40 40
55 56 56 56 56 55 54 54 55 56 57 58 57 57 57 57 56 55 54 54 54 54 54 53 52 51 51 51 51 50 50 50 49 50 50 51 50 50 50 50 49 49 50 51 52 53 53 52 51 52 51 49 47 46 45 44 43 42 42 42 40 39 39
53 53 53 54 54 54 54 55 56 57 57 56 55 55 56 55 54 54 54 54 54 54 53 52 51 51 51 50 50 49 49 49 49 49 50 50 49 49 49 49 48 49 50 51 52 52 52 51 51 51 50 48 47 46 44 42 42 42 42 41 39 38 39
51 52 52 52 53 54 55 56 57 56 55 53 53 54 54 53 53 53 54 54 54 53 53 52 51 51 50 49 49 49 48 48 49 49 49 48 48 48 49 48 48 48 49 50 51 51 51 50 50 49 48 47 46 45 43 41 42 42 41 40 39 39 38
50 51 52 53 54 55 56 57 55 53 51 51 52 53 52 52 52 53 53 53 53 53 52 52 51 51 50 49 48 48 48 48 48 48 47 46 46 47 48 47 47 48 49 50 50 50 50 50 50 48 47 46 45 44 42 41 41 41 40 39 40 40 39
51 52 52 54 55 55 55 54 52 50 50 50 51 51 50 51 51 52 52 52 53 53 52 51 51 50 49 48 48 48 47 47 47 47 46 46 45 45 46 47 48 48 48 49 49 49 48 49 49 48 46 46 45 43 41 40 40 40 40 40 40 41 39
51 52 52 53 53 52 52 51 49 49 48 48 49 49 50 50 50 51 51 51 52 52 52 51 51 50 49 48 46 46 47 47 46 45 45 45 45 44 45 46 47 48 48 48 49 49 48 48 48 47 46 45 44 42 40 39 39 40 40 39 40 41 40
50 50 50 50 50 49 49 48 47 46 45 46 47 48 48 49 50 52 52 52 52 51 50 49 49 49 49 47 46 46 46 46 45 44 44 44 44 44 45 45 45 46 47 48 49 49 47 45 45 46 45 43 42 40 39 39 39 38 39 39 40 41 41
48 48 48 47 47 47 47 46 44 43 43 45 46 46 47 49 51 52 53 53 53 52 50 49 49 48 47 46 46 46 45 44 43 43 43 43 44 45 45 45 44 44 45 47 48 49 47 45 44 44 43 41 40 40 40 39 38 37 38 40 41 42 42
46 46 46 45 45 45 44 42 41 41 43 44 45 46 47 49 51 52 53 53 53 52 51 51 50 49 47 47 46 45 44 43 42 42 42 42 44 44 44 45 43 42 42 43 44 46 46 46 45 44 42 40 38 38 38 38 37 37 39 41 43 43 43
45 45 45 44 43 42 41 40 40 40 42 44 45 46 47 49 51 52 53 53 52 51 50 50 49 48 47 47 46 44 43 43 43 44 43 42 43 44 44 43 41 39 40 41 42 44 44 44 44 43 42 40 37 36 37 37 38 39 40 43 44 44 43
44 44 43 42 41 40 40 40 40 40 42 44 45 46 48 50 51 52 53 52 50 49 49 48 47 46 47 47 45 43 42 42 43 46 45 43 43 43 43 41 39 38 38 38 41 43 43 42 42 41 39 37 35 34 35 37 40 41 41 43 44 44 43
43 43 41 40 39 39 40 40 40 40 42 44 45 46 48 50 51 52 52 51 49 49 48 47 46 45 45 45 43 42 41 40 42 45 46 45 44 43 43 41 38 37 37 37 39 41 41 41 41 40 39 37 35 34 35 39 44 44 43 43 43 43 42
41 40 39 38 38 39 40 40 40 40 41 44 45 47 48 49 51 52 51 49 49 48 47 46 45 44 44 43 42 41 41 41 42 44 45 45 44 44 43 40 38 37 37 37 38 39 39 40 40 41 41 40 38 38 39 42 44 44 44 44 44 43 44
39 38 38 38 38 39 39 40 40 40 42 44 45 46 48 49 51 51 49 48 48 48 47 46 45 44 42 41 41 41 40 41 42 43 44 45 45 44 42 40 38 38 38 38 38 38 38 39 40 40 41 41 40 40 40 41 42 42 43 43 44 45 46
37 37 37 37 38 39 39 40 41 42 42 43 45 46 47 49 50 49 48 48 48 47 46 45 45 44 42 41 41 40 39 40 41 41 42 44 45 43 41 40 40 39 38 39 38 37 36 36 37 38 38 38 38 38 39 40 41 41 42 42 43 45 47
36 37 37 38 38 39 40 40 41 42 42 43 44 45 46 48 48 48 47 48 47 46 45 45 45 44 42 41 41 40 40 40 40 40 41 42 43 41 39 38 39 40 40 40 39 36 35 34 34 34 35 35 35 36 37 39 40 41 41 41 43 45 47
36 37 38 38 39 40 40 41 42 42 42 43 43 44 46 46 47 47 47 48 47 46 45 45 44 43 42 41 40 41 41 40 40 40 41 40 39 37 37 38 40 42 42 41 40 38 37 36 35 35 34 34 35 36 37 40 42 42 41 42 44 46 48
36 37 39 39 40 40 41 42 42 42 42 42 42 44 45 45 45 45 46 47 47 46 45 45 44 43 42 41 41 41 42 42 41 41 40 40 39 40 40 40 40 41 41 41 40 40 39 38 37 37 36 35 35 36 37 39 41 42 42 43 45 46 47
37 38 39 40 41 41 41 42 43 42 42 41 41 43 44 45 44 44 44 46 47 46 45 45 45 43 42 42 42 43 44 44 42 40 39 39 41 42 41 40 39 40 40 40 40 40 40 39 39 39 38 37 37 36 36 37 39 40 41 42 43 44 45
38 40 40 41 41 42 42 42 43 43 42 41 40 41 43 44 45 44 44 45 45 45 45 45 45 44 43 43 43 44 45 44 43 40 38 38 40 42 41 39 39 40 41 40 40 40 40 40 40 39 39 39 37 36 36 37 39 40 40 41 41 42 42
39 40 41 41 42 42 43 43 43 42 42 41 41 41 42 44 44 43 43 44 44 45 45 46 45 44 44 44 44 44 44 44 43 41 39 38 39 40 41 40 40 41 41 42 41 41 41 41 41 40 40 39 38 37 37 38 39 40 40 41 42 42 42
40 40 41 42 43 43 43 43 43 42 41 42 42 42 42 43 43 42 42 43 44 45 46 46 45 45 45 45 45 44 44 43 41 40 38 37 38 39 40 41 41 42 42 42 42 42 42 42 41 41 40 40 39 38 37 38 39 40 40 41 42 43 42
41 41 41 42 43 43 44 44 43 42 42 42 42 42 42 42 42 41 42 43 44 46 47 47 46 45 45 45 44 43 43 42 40 39 38 37 38 39 41 41 41 42 42 42 42 42 42 42 42 42 41 40 39 38 38 39 39 39 40 41 42 42 42
41 42 42 43 43 43 43 43 43 42 43 43 42 42 42 42 42 42 42 43 44 46 47 48 47 45 44 44 43 42 41 40 39 38 38 38 38 39 41 41 41 42 42 42 43 43 43 43 42 42 41 41 40 39 39 39 39 40 40 41 42 43 42
41 41 42 43 43 43 42 42 42 42 42 42 41 41 41 42 42 43 43 43 44 46 47 47 46 45 44 43 43 42 40 39 39 37 37 38 38 39 40 41 42 42 43 43 44 44 43 43 43 42 42 41 41 41 41 40 40 40 41 41 42 43 42
40 40 41 42 42 43 43 43 43 43 42 42 42 42 42 41 41 41 42 43 44 46 47 47 46 46 44 43 43 42 40 39 39 38 37 38 40 41 41 42 43 43 43 44 45 44 44 43 42 42 42 41 41 42 42 41 40 40 41 41 42 42 42
39 39 40 40 41 42 43 44 44 45 44 44 44 44 43 42 41 40 39 41 43 46 47 47 47 46 45 44 43 43 43 42 41 40 39 39 40 41 41 42 43 43 43 44 44 44 44 43 42 42 42 42 42 42 42 42 41 41 41 42 42 42 41
37 38 39 39 40 42 43 43 44 45 45 45 45 44 44 44 43 41 40 41 43 44 45 45 45 45 45 44 44 44 45 45 44 43 42 41 40 40 41 42 42 41 41 42 43 44 44 43 43 42 43 42 42 42 42 42 41 41 41 41 42 42 41
36 37 38 39 40 41 42 43 44 45 44 44 44 44 44 44 44 43 41 40 41 43 43 43 44 44 45 45 44 44 44 45 45 45 44 43 42 41 41 42 42 41 40 41 42 43 44 44 43 43 43 43 43 42 42 42 41 41 41 41 41 41 40
38 38 39 39 40 41 41 42 42 42 43 42 42 42 43 44 43 42 41 40 40 41 42 42 42 43 44 44 44 43 43 43 43 44 43 43 42 42 42 42 42 41 41 41 42 43 44 44 43 43 43 43 43 42 42 42 41 40 41 41 41 41 40

ECMWFFLT1_700_spd_120.txt.gz
Wind_Speed
56 57 56 55 54 54 54 55 56 58 59 59 60 61 63 66 67 66 65 64 64 64 65 63 61 59 58 58 58 58 58 58 57 56 55 54 53 52 52 52 53 55 56 56 56 57 58 57 57 57 57 57 57 57 56 55 55 54 54 54 52 52 51
55 55 55 54 54 55 56 58 59 60 61 61 61 61 62 64 66 66 65 64 65 64 63 60 58 57 56 57 57 58 58 57 56 55 54 53 52 52 52 52 53 54 56 57 57 58 59 58 58 58 57 56 56 55 54 53 52 52 53 53 52 51 50
54 54 54 54 55 57 58 59 59 59 60 61 61 60 60 62 63 63 62 62 61 59 57 56 56 56 56 56 57 57 57 56 55 54 53 52 52 52 53 53 53 54 56 57 58 58 58 58 57 58 56 54 54 53 52 51 50 50 51 51 50 50 49
54 54 55 55 56 57 57 58 58 58 58 59 59 58 57 59 59 59 57 56 55 53 52 54 55 55 56 56 57 57 56 55 54 52 51 51 51 51 52 53 54 54 55 57 59 59 58 57 56 56 55 53 52 52 51 50 50 49 50 50 49 49 48
54 55 55 56 56 56 57 57 56 56 56 57 57 55 55 56 56 54 52 49 48 49 51 53 55 55 56 57 57 57 56 55 53 52 50 50 50 50 51 52 53 54 55 56 58 59 58 57 55 54 52 51 51 51 50 50 49 49 48 48 48 47 46
55 55 55 56 57 57 57 56 55 55 55 54 54 53 53 53 51 48 46 45 47 49 52 54 55 55 56 57 57 56 55 54 53 52 50 50 49 49 50 51 52 53 54 55 57 57 57 56 54 52 51 49 50 51 51 50 49 48 47 47 47 46 45
55 55 56 57 57 57 55 54 53 53 52 51 51 51 50 48 45 44 45 46 48 50 52 54 55 55 56 56 55 54 54 53 52 51 51 50 49 49 50 51 52 53 54 55 56 56 55 54 52 51 50 48 48 50 51 49 48 48 47 46 46 45 45
55 56 57 57 56 55 53 53 51 50 49 48 48 47 45 44 44 45 46 47 49 51 53 54 55 55 55 54 54 53 53 52 51 50 50 50 49 49 50 51 52 53 54 55 55 55 53 52 51 51 49 47 47 49 49 48 48 48 47 46 45 45 44
56 56 56 55 54 53 52 50 49 48 47 47 46 46 45 46 46 46 47 48 50 52 54 55 55 54 53 52 52 52 51 50 50 50 50 49 49 49 50 51 51 52 53 54 54 54 51 50 50 49 48 47 47 47 47 47 47 47 46 45 45 44 44
55 55 55 54 52 51 49 48 47 47 47 47 47 46 46 47 47 47 48 50 52 53 54 55 54 53 52 51 51 50 49 49 49 49 49 48 49 49 50 51 52 52 52 52 53 52 50 50 50 48 47 46 46 46 46 45 45 46 45 45 45 45 43
54 54 53 51 50 48 48 47 47 48 48 47 47 46 47 47 47 47 49 51 52 53 54 54 53 52 51 51 50 49 47 47 47 48 47 48 48 49 50 51 52 52 52 52 51 50 49 50 49 46 45 45 45 45 45 44 44 45 44 45 45 45 43
53 52 51 49 48 47 47 47 47 48 47 47 46 46 46 46 46 48 49 51 53 54 54 53 52 51 50 50 49 47 47 47 47 47 47 47 48 49 50 51 51 51 51 50 50 49 49 49 47 45 44 43 43 43 44 44 44 44 44 44 45 44 42
51 50 49 49 48 48 48 48 47 46 45 45 44 45 46 46 47 48 50 52 54 54 53 52 50 50 49 49 48 47 46 46 46 46 46 47 48 49 50 50 49 50 50 49 49 49 49 47 46 44 42 41 41 43 43 44 44 43 43 43 43 42 41
49 49 49 49 48 48 48 47 46 44 43 43 43 43 46 47 48 50 51 53 53 52 52 50 49 49 48 47 47 47 46 46 45 45 46 46 48 49 49 49 48 48 48 48 49 50 49 46 45 44 42 40 41 43 43 44 44 43 43 43 42 41 41
49 48 48 48 47 46 46 45 43 42 41 42 42 43 45 48 51 52 52 52 52 51 50 48 47 47 47 47 47 46 45 45 44 44 45 46 48 49 49 49 48 46 44 45 47 49 48 46 44 43 42 41 41 42 43 43 44 44 43 43 43 42 42
47 47 46 46 45 45 44 43 42 41 41 41 42 44 46 49 51 51 51 51 51 51 50 48 46 46 45 45 45 45 44 44 44 45 46 47 49 49 48 48 45 43 42 44 45 46 46 45 44 43 43 42 41 42 41 41 42 42 41 42 43 43 42
46 45 44 44 43 43 43 42 41 41 41 42 43 45 47 48 48 49 50 50 50 50 50 49 48 47 46 45 44 43 43 43 44 46 47 48 49 48 48 46 42 40 40 42 43 43 43 43 42 41 41 39 39 39 38 40 42 42 41 42 43 43 42
45 44 43 43 42 42 42 41 40 40 41 42 43 44 45 46 47 48 49 49 49 49 48 48 48 48 47 47 45 44 43 43 44 45 47 49 49 48 47 44 40 39 39 39 40 41 42 42 40 38 38 38 38 38 37 41 45 45 43 44 45 43 43
44 43 42 42 41 41 41 40 40 40 40 40 41 42 43 45 47 48 49 49 48 48 48 48 48 47 47 47 46 45 44 43 43 45 47 47 48 50 49 44 40 39 39 38 39 39 40 42 41 40 39 40 40 39 39 42 46 46 46 47 46 44 44
43 42 41 41 40 40 40 40 39 38 37 38 39 41 43 46 47 48 48 48 48 48 48 48 47 46 46 45 45 44 43 42 43 44 46 47 48 50 48 44 42 41 39 38 39 39 40 42 42 41 41 41 40 39 39 40 42 43 45 46 46 46 46
41 41 40 40 39 39 38 37 37 36 36 37 39 41 43 46 48 48 48 48 48 48 48 48 47 46 45 44 44 43 42 42 42 42 44 46 49 49 47 45 45 44 40 38 39 39 40 41 41 41 41 40 39 37 37 37 37 37 38 41 43 44 45
39 39 38 38 37 37 36 35 35 35 36 37 40 42 43 46 47 47 48 49 49 49 48 47 47 46 45 44 44 43 42 41 41 41 43 45 47 47 45 43 44 44 43 41 39 39 39 40 40 39 38 37 37 36 36 36 36 35 35 37 39 41 43
37 37 36 36 36 35 35 35 35 36 37 38 40 42 43 45 46 46 48 49 49 49 48 47 47 46 45 44 44 43 42 42 42 42 43 44 44 44 42 41 42 44 45 43 42 40 39 39 39 38 36 35 36 36 36 37 37 37 36 37 38 39 41
35 35 35 35 35 35 35 36 36 37 37 38 39 41 43 44 45 45 46 48 49 50 49 48 47 46 45 44 44 43 43 43 44 44 43 44 44 44 43 43 44 44 44 44 44 42 40 39 39 38 37 35 35 36 37 38 39 38 37 36 36 37 38
35 35 35 35 35 35 35 36 37 37 38 38 39 41 42 43 44 44 45 47 48 49 49 48 47 45 44 44 44 44 44 45 45 44 43 44 45 45 45 45 44 43 43 45 45 44 42 40 40 40 39 37 36 37 38 39 39 38 36 34 34 34 35
35 36 36 36 36 36 37 37 38 38 38 38 39 40 40 42 43 44 45 46 46 47 47 47 47 46 45 45 46 46 46 46 46 45 44 44 44 44 46 46 45 43 43 43 43 43 43 41 41 41 41 41 40 40 39 39 39 38 36 34 34 34 34
36 36 37 37 38 38 39 39 39 39 39 40 40 40 40 41 42 43 44 45 45 44 45 46 46 47 47 47 47 47 47 47 46 45 44 44 43 44 46 47 46 44 43 42 42 42 42 42 42 42 43 43 43 41 41 40 40 39 38 37 37 36 34
37 37 37 39 39 40 40 40 40 39 40 41 42 41 40 40 40 41 42 44 44 44 45 46 47 48 48 48 48 47 47 46 46 45 44 43 43 43 44 45 45 44 43 41 41 41 41 42 43 44 44 44 44 43 42 42 41 41 40 39 39 39 36
39 38 39 40 41 41 41 41 40 40 41 42 43 42 40 40 39 40 41 42 43 44 45 47 48 48 48 47 47 47 46 45 44 44 43 43 42 42 42 42 42 42 41 40 40 41 41 42 43 44 44 44 44 44 43 43 42 42 41 41 41 40 37
39 40 40 41 41 41 42 41 41 41 42 42 42 42 41 41 40 41 41 41 42 44 46 47 48 47 46 45 45 45 45 44 43 43 42 41 40 40 40 39 39 39 38 38 38 39 40 41 42 43 44 45 45 44 44 44 43 43 42 42 41 41 39
38 39 41 42 43 43 42 42 41 41 41 41 40 41 41 41 42 42 42 43 43 44 45 46 46 46 45 44 44 45 44 43 42 42 41 40 39 39 39 38 38 37 36 37 37 38 39 41 42 43 44 45 46 46 45 45 44 43 43 42 42 42 41
37 38 39 41 42 43 43 43 43 42 41 40 40 40 41 41 41 40 41 42 44 45 47 47 47 47 46 45 44 44 43 43 42 41 40 40 40 39 39 38 38 37 37 38 39 39 40 41 42 43 44 46 47 47 47 46 45 44 43 43 43 43 42
38 38 39 40 40 41 42 42 43 43 42 42 42 42 42 42 42 41 40 41 42 45 46 47 48 48 47 45 44 43 42 43 42 42 41 41 41 40 39 38 38 38 38 38 39 40 40 41 42 43 44 45 46 47 47 46 45 44 43 44 44 43 43
36 37 39 39 39 39 40 41 41 42 42 42 42 43 43 43 43 42 40 40 41 42 43 44 45 46 46 46 45 44 43 43 43 43 43 42 41 41 40 39 39 39 38 38 38 39 40 41 42 43 43 44 45 46 46 45 44 43 43 44 44 43 43
35 36 37 37 37 38 39 40 40 41 41 41 42 42 42 43 43 42 40 38 39 39 40 41 42 43 43 44 44 43 43 43 43 43 44 43 42 42 41 41 41 40 38 37 37 38 39 40 41 41 41 42 43 43 44 44 44 43 43 43 43 43 43
37 36 36 36 37 38 39 39 40 40 40 40 40 41 42 44 44 43 42 40 39 39 39 40 41 41 42 43 43 43 43 42 42 42 43 43 42 42 42 42 42 41 40 39 37 37 37 38 39 39 40 40 40 41 41 41 42 42 42 42 42 42 42

ECMWFFLT1_700_spd_123.txt.gz
Wind_Speed
54 54 55 55 55 54 53 52 51 50 49 50 50 51 50 49 49 49 50 51 53 54 55 56 56 56 57 57 58 58 58 58 58 58 58 57 56 54 53 52 53 54 54 54 55 53 52 51 51 51 50 49 49 49 50 51 53 54 54 55 56 57 57
53 53 54 54 55 54 54 53 52 51 50 50 49 48 48 47 48 50 51 53 54 55 55 55 54 54 54 55 55 55 55 55 56 56 56 55 53 52 51 51 52 53 54 54 53 51 51 50 50 50 49 49 50 50 51 51 52 53 54 55 56 57 57
51 51 52 53 53 54 53 53 52 51 51 50 49 48 48 49 50 52 53 55 55 54 54 53 52 51 52 53 53 52 52 53 54 54 54 52 51 50 51 51 51 52 53 52 51 51 50 49 49 50 50 50 51 51 52 52 53 54 54 54 55 56 55
50 50 51 52 52 52 52 52 52 51 51 51 51 50 51 51 52 54 55 55 54 53 53 52 51 51 52 52 51 50 51 52 52 52 51 51 50 51 51 50 50 51 51 51 50 50 49 49 49 49 50 50 51 52 53 53 53 54 54 54 54 53 52
49 49 50 51 51 51 51 51 51 51 52 52 52 52 52 53 54 54 54 53 53 52 51 50 50 51 52 51 49 49 49 50 50 50 50 51 51 51 50 50 49 49 49 50 50 49 49 49 49 49 50 51 51 52 52 53 53 53 53 53 52 51 50
49 49 50 50 50 51 51 50 50 51 51 51 51 52 53 53 53 52 52 51 50 49 49 50 51 51 51 49 48 47 47 47 48 50 51 51 51 50 49 49 49 48 48 49 49 49 49 50 49 49 50 51 51 52 52 53 53 52 51 51 50 50 48
49 49 49 49 50 50 49 49 49 50 50 51 51 52 52 51 50 49 49 48 48 49 50 50 49 48 46 45 44 44 45 47 49 50 51 52 51 50 49 48 47 47 48 48 49 49 50 50 50 50 51 51 51 52 52 52 52 52 51 49 49 48 47
48 48 48 48 48 48 48 48 49 50 50 50 50 50 49 48 47 46 46 46 47 47 47 45 43 42 42 42 43 44 45 48 50 51 52 51 50 49 48 47 47 46 47 48 48 49 49 49 50 50 50 50 51 51 51 49 50 52 51 48 47 47 46
48 48 47 47 47 47 47 48 49 49 49 48 47 46 45 44 44 44 44 44 44 44 43 42 42 42 43 44 44 45 47 49 50 51 51 50 49 48 47 46 46 46 46 47 48 48 49 49 50 50 50 50 50 50 49 47 48 50 49 48 48 47 46
47 47 46 46 47 47 47 47 47 46 45 45 44 43 42 42 43 44 44 44 44 44 44 44 44 44 45 45 46 47 49 50 50 50 50 49 48 47 46 46 46 46 46 46 47 48 48 49 50 50 49 49 49 48 47 46 46 47 48 48 49 48 46
46 46 46 46 46 46 46 45 45 44 43 42 42 41 42 43 44 45 45 46 46 46 46 45 46 46 46 46 48 49 49 50 50 50 50 49 47 46 45 45 46 46 46 46 47 48 48 50 50 49 49 49 48 47 45 45 45 46 47 47 49 48 46
46 46 45 46 45 45 45 45 44 43 42 41 41 42 43 44 45 46 46 47 47 47 47 47 47 47 47 48 48 49 49 49 49 50 49 48 47 46 46 45 45 46 46 46 47 48 49 50 49 49 49 49 47 45 45 45 45 46 46 46 47 48 46
45 45 45 46 45 45 45 45 44 43 43 43 43 44 45 47 47 47 47 47 47 47 47 47 47 48 48 48 48 48 48 49 49 49 47 46 46 46 46 46 45 46 46 46 47 48 49 49 48 49 49 47 45 45 45 45 45 45 45 46 47 47 45
45 45 45 45 45 45 45 45 45 44 44 44 44 44 45 47 46 45 46 46 46 46 47 47 47 47 47 47 47 47 48 48 47 46 45 45 46 46 46 46 46 46 46 46 47 48 49 48 48 49 48 46 45 45 45 44 45 45 45 46 46 45 45
44 45 45 45 45 45 45 45 44 43 42 42 42 41 43 45 46 44 44 45 46 46 46 46 46 47 47 47 48 48 48 46 45 44 44 45 46 46 46 46 46 45 45 46 47 48 48 48 48 48 47 46 45 45 44 44 44 45 46 46 46 45 45
44 44 44 44 44 44 44 43 42 41 41 40 40 39 40 44 46 45 44 45 45 45 45 45 46 47 47 48 48 47 46 44 43 44 44 45 45 45 46 47 46 45 44 45 46 47 48 49 49 48 48 46 45 44 43 43 45 45 46 46 46 46 44
42 43 43 43 43 43 42 42 41 40 40 40 39 38 39 42 45 45 46 45 45 45 46 46 47 48 48 49 47 45 43 42 42 44 44 45 46 46 46 47 45 44 44 44 45 45 47 48 48 48 48 47 46 44 43 44 46 46 44 45 46 45 42
41 41 41 41 41 41 41 40 39 39 39 38 37 36 38 41 43 45 46 47 47 47 48 48 49 49 48 47 45 42 41 41 42 44 45 46 45 46 47 46 44 43 43 44 44 45 46 47 47 46 45 44 43 43 43 46 48 46 45 46 45 43 41
40 40 40 39 39 39 39 38 37 37 37 36 35 35 38 40 43 45 47 48 49 49 50 50 49 48 47 45 43 41 40 40 41 43 45 46 46 47 47 45 42 43 43 44 45 45 45 45 45 45 45 44 43 43 44 46 48 47 47 47 46 43 43
38 38 38 38 37 37 36 35 35 34 34 34 35 36 38 41 44 46 47 48 49 50 50 50 48 47 45 44 43 41 40 39 40 42 44 45 47 48 46 43 43 44 44 45 46 45 44 44 44 44 44 45 44 44 44 45 46 47 48 48 47 44 43
37 37 37 36 35 35 34 33 33 32 33 34 35 36 39 42 44 45 46 47 48 48 48 48 47 45 44 43 42 42 41 41 40 41 43 45 47 47 45 44 46 46 46 46 46 45 44 43 43 42 42 42 42 43 43 43 43 44 45 46 47 45 43
36 35 35 34 34 33 32 31 31 31 32 33 34 36 38 40 42 43 44 46 46 46 46 46 45 44 43 42 42 41 41 41 41 41 43 45 46 45 43 43 45 47 47 48 47 46 44 43 41 39 37 37 39 40 41 41 40 39 40 41 42 43 42
34 34 34 33 32 31 31 30 31 31 31 32 33 35 36 38 40 41 43 45 46 46 46 46 45 44 43 42 43 43 42 42 41 41 42 43 44 42 41 41 44 46 48 49 49 47 45 43 41 39 36 35 36 37 38 39 38 36 37 39 40 41 41
33 33 33 32 32 31 31 31 31 31 31 32 32 34 36 38 39 41 43 45 46 47 47 47 46 44 43 43 44 43 43 42 42 42 43 43 42 42 42 44 46 48 49 50 49 48 46 43 41 39 37 35 35 36 38 39 38 37 38 39 40 40 40
33 33 33 32 32 31 31 32 32 32 32 32 33 35 37 38 40 42 43 45 46 47 48 48 46 45 44 44 44 43 43 42 43 43 43 42 42 43 45 46 46 46 47 48 49 48 47 44 41 39 38 36 36 37 39 39 39 38 39 40 40 40 40
32 33 33 33 33 33 32 32 33 32 33 34 35 37 37 39 41 42 43 44 45 45 46 46 46 46 46 45 45 45 44 44 44 43 44 44 43 44 45 45 45 45 45 46 47 47 47 46 43 41 40 40 40 40 40 41 41 40 39 40 40 41 41
32 32 33 33 33 33 33 33 33 33 34 35 37 37 37 38 39 40 42 43 44 44 44 45 45 46 47 47 47 47 47 46 45 44 44 44 43 43 44 44 44 44 45 45 45 45 46 46 45 44 43 42 42 42 41 41 42 42 40 40 40 42 41
32 32 33 34 35 35 35 34 34 34 35 37 37 37 37 38 38 38 40 41 42 43 44 45 46 46 47 47 48 47 47 47 46 45 44 43 43 43 43 43 44 44 45 45 45 45 46 46 45 45 44 43 43 43 42 41 42 43 42 40 41 41 39
33 33 34 35 36 36 37 36 35 35 36 37 38 37 38 38 37 37 39 39 41 43 44 46 46 46 46 47 47 47 47 46 46 45 44 43 42 42 42 43 43 44 45 44 44 44 44 44 44 44 43 42 43 42 41 42 42 43 42 42 42 41 38
34 35 36 37 38 38 39 39 38 38 37 37 37 38 39 39 39 39 39 39 40 41 43 44 45 45 45 45 45 45 45 44 44 43 43 42 42 42 42 42 43 43 43 43 42 42 41 41 41 42 41 41 41 40 40 41 41 42 42 43 43 42 40
34 36 37 39 40 41 41 42 41 41 39 38 37 38 39 40 40 40 40 39 40 41 42 42 43 43 44 43 43 44 43 43 43 43 43 42 42 42 42 42 42 41 41 41 41 40 40 40 40 41 41 41 40 40 39 40 41 41 42 43 42 42 41
35 36 37 38 40 41 42 42 42 42 41 39 38 38 39 39 39 39 39 39 41 43 44 44 43 44 44 43 43 43 42 42 42 42 42 41 41 41 41 41 40 39 39 40 41 40 40 40 40 40 41 41 41 41 41 41 41 42 42 43 43 42 41
36 37 38 38 39 40 41 42 41 41 41 41 40 40 40 40 40 40 39 39 40 42 43 44 44 44 44 44 44 44 43 42 42 42 41 41 41 41 40 40 39 39 40 40 41 40 40 40 39 39 40 40 40 41 41 42 42 42 42 43 43 42 41
34 36 37 38 38 39 40 41 41 41 40 41 41 41 42 43 43 42 41 40 40 41 42 42 43 44 44 44 45 44 44 43 43 42 42 41 41 40 40 39 39 40 41 40 40 40 40 39 38 38 38 38 39 40 41 41 42 42 42 42 42 42 41
33 33 35 36 38 39 40 40 41 41 41 41 41 42 44 46 46 45 44 42 42 43 43 43 44 44 45 45 46 46 46 45 44 44 43 43 42 41 40 39 39 40 39 39 39 39 38 38 37 36 36 36 37 38 39 40 39 39 40 40 41 41 41
36 35 35 36 38 40 41 41 41 42 42 42 43 44 46 47 47 47 47 46 45 44 45 45 46 46 47 47 48 48 48 48 47 46 45 44 43 42 42 41 41 40 39 39 38 38 37 37 36 35 35 35 35 36 37 37 36 37 37 37 38 40 40

ECMWFFLT1_700_spd_126.txt.gz
Wind_Speed
52 54 55 57 58 59 58 58 57 56 55 55 55 54 53 52 52 53 53 53 53 53 54 54 54 53 52 50 50 49 49 49 50 52 53 53 54 54 53 53 54 55 56 56 56 56 55 54 54 54 52 52 51 51 51 51 52 52 51 50 48 46 46
53 55 56 58 59 59 59 58 58 57 56 56 55 54 52 52 52 52 52 52 52 52 52 53 53 52 51 49 49 49 50 51 52 53 53 53 53 53 52 52 52 53 54 54 55 54 54 54 54 53 52 51 51 51 50 51 51 50 50 49 47 46 46
54 55 56 57 58 59 59 58 58 57 56 56 55 54 52 51 51 51 51 51 52 51 51 52 51 51 49 49 49 50 51 52 53 53 52 52 53 53 52 51 50 51 52 53 54 54 54 54 54 53 52 51 51 50 50 49 49 49 48 47 46 45 45
54 55 56 57 58 58 58 58 57 56 56 56 55 54 52 51 51 51 51 51 51 51 50 50 50 49 49 49 51 52 53 53 52 51 51 52 52 52 51 50 49 49 51 53 54 54 54 53 53 53 53 52 51 50 49 48 48 47 47 45 45 45 45
55 55 56 56 56 56 56 56 55 55 56 55 54 53 52 52 51 51 51 51 50 49 48 48 49 49 49 51 52 52 52 51 50 50 50 51 51 50 49 48 47 49 51 53 54 53 53 53 53 54 53 52 51 50 49 48 48 47 45 44 44 45 46
55 54 54 54 54 54 54 54 54 55 55 54 53 53 52 52 51 50 50 48 47 47 47 48 49 50 51 51 51 50 49 49 49 50 50 50 49 48 47 47 47 49 51 52 53 53 53 54 54 54 54 53 51 50 49 49 48 46 45 44 44 45 46
53 53 52 52 52 52 53 53 53 53 53 53 52 52 51 51 49 48 47 46 46 47 48 49 49 50 50 49 49 49 48 49 49 50 49 49 48 47 47 47 48 49 51 52 52 53 54 54 54 54 54 53 51 50 50 48 46 45 45 45 46 46 46
52 51 51 50 51 51 51 51 52 52 51 51 51 50 49 48 47 46 46 47 47 48 48 49 48 48 48 48 48 49 49 50 49 49 48 48 48 47 47 47 48 50 51 52 53 54 54 55 55 55 54 53 51 50 48 46 45 46 46 45 46 46 47
50 50 49 49 49 49 49 49 49 49 49 48 48 47 46 46 46 46 47 47 47 48 48 48 48 48 48 49 49 49 50 49 47 46 46 46 46 46 46 47 49 50 51 52 54 54 54 55 56 55 54 53 50 48 46 45 45 47 46 46 47 47 47
49 48 48 48 47 47 47 47 47 46 46 45 45 45 46 46 46 46 47 47 47 48 48 48 48 49 49 49 49 49 48 46 45 44 45 45 46 46 47 48 49 50 52 53 54 54 54 55 56 55 53 51 48 46 46 45 45 46 46 47 48 48 47
47 47 47 47 46 46 45 45 44 44 44 44 44 45 45 45 45 46 46 47 48 48 48 48 49 49 49 49 49 48 47 45 45 46 46 47 48 48 49 49 50 51 52 53 54 54 54 55 56 54 51 49 47 46 45 44 44 46 47 47 48 49 48
46 45 45 45 45 45 44 44 44 43 43 44 44 44 45 45 46 46 47 48 48 48 48 49 49 49 50 50 49 48 48 48 48 48 48 49 49 50 50 50 50 52 53 53 53 53 54 55 55 52 50 48 46 45 44 44 45 46 47 47 48 49 48
43 43 43 43 43 43 43 43 44 44 44 44 44 44 45 45 46 47 47 48 48 48 49 49 50 51 51 51 50 50 50 50 49 50 50 50 50 51 50 50 51 52 52 53 53 54 55 54 52 50 48 46 44 45 45 46 46 45 46 47 49 49 48
41 41 41 41 41 42 42 42 43 43 43 44 44 44 45 46 46 47 48 48 49 49 50 51 51 52 52 51 51 51 51 51 50 50 50 50 51 51 50 50 51 52 53 53 53 54 55 52 49 48 47 45 45 46 46 46 45 45 46 48 49 49 49
40 40 40 40 40 40 40 40 41 42 42 43 43 43 45 46 46 47 48 48 49 49 50 50 50 51 52 52 52 52 51 51 50 50 50 50 49 49 49 50 51 51 52 53 54 53 52 49 47 47 47 46 46 46 46 46 46 46 47 49 50 50 49
39 39 39 39 39 39 40 40 40 40 40 41 41 42 43 44 45 46 47 47 47 47 48 48 49 50 50 51 51 50 50 50 49 49 48 48 48 48 49 51 51 52 52 53 53 52 50 48 47 46 46 46 46 46 45 45 46 47 48 49 50 50 49
39 40 40 40 40 40 40 40 40 40 40 39 39 39 40 41 42 44 45 46 46 46 46 46 47 48 49 49 49 48 48 47 46 46 46 47 47 48 50 52 53 52 52 51 50 49 48 48 47 46 46 47 47 46 44 45 48 48 48 49 49 50 48
39 39 40 40 40 40 40 40 40 39 39 39 38 38 39 40 41 42 44 45 46 46 46 46 46 46 46 46 46 45 44 43 43 44 46 47 48 50 53 54 53 51 50 49 47 47 47 48 48 47 47 47 46 45 45 48 50 48 47 48 49 49 47
39 39 39 39 39 39 39 39 39 39 39 38 38 37 38 39 40 42 43 44 46 46 46 46 46 45 44 43 43 43 42 41 42 45 47 48 50 53 54 52 50 49 48 48 47 46 46 47 47 47 47 47 46 45 45 47 49 47 47 49 49 47 47
37 37 38 38 38 38 38 38 38 38 38 37 37 36 36 38 40 41 42 43 44 45 45 46 46 45 43 43 43 43 43 43 44 46 49 50 52 53 52 48 47 48 48 47 47 46 46 47 46 47 48 48 48 46 45 45 47 48 48 49 49 48 48
36 36 36 36 36 36 36 36 36 36 36 36 36 35 35 36 38 40 41 42 42 43 44 45 45 46 45 45 45 45 45 45 45 46 49 51 51 50 48 46 47 47 46 47 47 47 47 47 47 47 48 48 47 46 45 44 45 46 47 48 48 47 47
34 34 34 33 33 33 34 34 35 35 34 34 34 34 34 35 37 38 40 41 43 44 45 46 46 47 47 47 48 47 46 46 45 45 47 49 49 49 47 47 48 48 47 48 49 48 48 48 48 48 47 47 46 45 44 44 44 44 44 44 45 46 46
32 32 32 31 32 32 33 33 34 34 33 33 33 33 34 34 35 37 39 41 43 44 46 47 47 48 48 48 48 47 46 46 45 45 46 47 46 46 46 46 48 49 49 49 49 49 49 49 48 47 46 45 44 42 41 41 41 40 41 42 44 45 45
31 32 32 32 31 32 32 33 33 33 32 32 32 33 34 34 35 36 38 40 42 44 45 46 46 47 47 47 46 46 45 45 45 46 47 46 45 45 44 45 47 48 50 50 51 51 50 49 47 45 44 42 40 38 38 38 38 39 41 43 44 45 45
32 32 33 33 33 32 32 32 33 32 32 33 33 34 34 35 35 37 38 40 41 43 44 44 45 46 46 46 46 46 46 47 47 46 47 46 45 45 46 47 48 49 50 51 52 52 51 50 47 44 42 40 39 38 39 39 39 39 41 44 45 46 46
32 32 33 33 33 33 32 32 32 33 33 34 34 34 34 35 36 37 39 41 42 43 44 44 45 46 47 47 48 47 47 48 48 47 46 45 45 45 46 47 47 48 49 50 51 51 51 50 47 45 43 42 42 42 41 40 40 40 42 44 45 46 47
31 32 33 33 33 33 33 32 32 33 33 34 35 35 35 36 37 38 40 41 43 44 45 45 46 48 49 49 50 49 49 48 48 48 48 47 45 45 46 46 46 47 48 48 49 49 49 48 47 47 46 46 46 45 43 41 41 42 43 44 45 47 48
31 32 33 34 34 34 34 33 33 34 34 35 35 36 36 37 38 39 41 42 43 45 46 47 48 49 49 50 50 50 50 49 48 48 49 48 47 45 45 45 46 47 48 48 48 48 48 47 47 48 48 48 48 48 45 43 43 44 45 45 47 49 50
32 33 34 35 35 36 36 36 36 35 35 36 36 37 38 39 40 41 42 43 44 45 46 47 48 49 49 50 50 50 50 50 49 49 49 49 47 46 45 45 45 47 47 47 47 47 47 48 48 49 49 49 50 49 48 46 45 45 46 47 49 50 50
34 35 36 37 38 38 39 40 40 39 38 37 37 37 38 40 42 43 43 43 43 44 44 45 46 46 47 47 48 48 48 48 48 48 48 48 47 46 45 45 45 45 45 46 47 47 47 48 48 49 49 49 50 50 48 47 46 46 47 48 49 49 48
35 37 38 39 40 40 41 42 42 41 40 39 38 38 39 40 41 42 43 44 44 45 45 45 45 45 45 46 47 47 47 47 47 47 47 46 45 45 44 44 44 44 44 44 45 46 46 46 46 47 47 47 48 47 46 45 45 45 46 47 48 48 47
36 37 38 39 40 41 42 42 42 41 41 41 41 41 41 42 42 42 44 44 45 46 47 47 46 46 46 46 47 47 47 47 47 47 47 47 47 46 46 45 45 44 43 44 45 45 45 45 45 45 45 45 45 44 44 44 45 45 45 46 47 47 47
37 38 38 39 39 41 42 43 43 43 42 42 42 43 45 46 45 44 44 44 44 45 46 47 47 47 48 48 48 49 48 48 48 48 48 48 48 48 48 47 46 45 45 46 46 46 47 46 46 45 45 45 44 44 44 45 45 45 45 46 46 46 46
34 36 38 39 40 40 41 42 43 43 43 44 45 46 48 49 47 45 45 45 46 47 47 47 47 48 49 50 50 50 51 51 51 50 50 49 49 49 48 48 47 47 47 47 47 47 47 47 47 46 46 45 45 44 44 44 44 44 45 45 45 45 45
32 34 36 39 40 41 41 42 43 43 44 45 46 47 47 47 47 47 47 47 47 49 49 49 49 49 50 51 51 52 52 52 52 52 52 51 51 50 50 49 48 47 47 46 46 47 47 47 47 46 46 45 44 44 44 44 44 44 44 44 44 44 44
37 37 37 38 40 41 42 42 42 43 44 45 46 47 47 47 47 48 47 47 47 48 49 50 51 51 51 52 53 53 54 54 54 54 53 53 53 52 51 51 49 48 47 46 46 46 45 45 46 45 44 44 43 43 43 43 43 43 42 42 42 43 43

ECMWFFLT1_700_spd_129.txt.gz
Wind_Speed
50 50 50 51 51 51 51 52 52 52 53 54 55 55 56 56 57 58 58 59 59 60 60 61 60 60 59 59 59 58 58 58 58 58 57 57 57 57 56 55 55 56 56 55 55 54 53 53 54 55 55 56 56 56 56 56 56 55 55 55 54 53 53
50 51 51 51 52 52 53 54 54 55 55 56 57 57 57 58 58 59 59 59 60 60 60 61 61 61 60 60 60 59 59 59 59 58 58 57 57 56 55 54 53 54 53 53 54 54 54 55 55 56 56 56 56 56 56 56 56 56 55 54 54 53 52
52 52 52 53 53 54 55 56 56 57 57 58 58 58 58 59 59 59 59 60 60 59 60 60 61 60 60 60 60 59 59 59 59 59 59 58 57 56 55 53 51 51 52 52 54 55 56 57 57 57 56 56 56 56 56 56 56 55 54 54 53 53 52
53 54 54 55 55 56 57 58 58 59 59 59 59 59 59 59 59 59 60 60 60 59 59 60 60 60 60 60 60 60 59 59 59 59 59 58 57 55 53 51 50 50 51 52 54 57 58 58 57 57 57 56 56 55 55 55 54 54 54 53 53 53 52
55 56 57 57 57 58 59 59 60 60 61 61 60 60 59 59 60 60 60 60 59 59 59 59 60 59 59 59 60 59 59 59 58 58 57 56 55 53 51 50 50 50 50 52 55 57 58 58 58 58 58 57 56 55 54 54 54 53 53 53 52 52 51
57 57 58 59 59 60 60 60 61 61 61 61 60 60 60 60 60 60 60 60 59 59 58 59 59 58 58 59 59 59 58 57 56 55 55 54 52 51 51 51 51 51 51 53 55 57 58 59 59 59 58 57 55 54 54 54 53 53 53 52 51 51 51
59 59 59 60 60 60 60 60 60 60 59 59 58 58 59 59 59 60 60 59 58 58 57 57 57 57 57 57 57 56 55 54 53 53 52 52 52 52 52 52 52 52 52 53 55 56 58 59 59 58 58 57 55 55 55 54 53 52 51 50 50 50 51
59 59 59 59 59 58 58 57 57 57 57 56 56 57 57 58 58 59 59 58 58 57 56 56 56 55 55 54 53 52 51 51 51 52 52 53 53 53 52 52 51 52 53 54 56 57 59 59 59 58 58 57 57 57 56 54 51 50 50 49 50 51 52
57 57 56 56 55 55 54 54 54 54 54 54 55 55 56 57 57 57 58 57 57 56 55 54 53 52 51 50 50 50 50 51 52 53 54 54 54 53 52 51 51 52 54 56 57 58 59 59 60 59 59 59 58 56 53 50 50 50 50 50 51 52 52
52 52 52 52 52 51 52 52 52 52 53 53 53 54 54 55 55 55 55 55 55 54 53 52 51 50 50 50 50 51 53 54 55 56 56 55 54 53 52 52 52 54 55 56 58 59 59 60 60 60 59 58 56 52 50 49 50 50 50 51 52 53 53
49 49 49 50 50 50 50 51 51 52 52 52 52 52 52 52 52 52 52 52 52 51 51 51 51 51 51 52 53 54 55 56 56 57 56 56 55 54 53 53 53 54 55 56 58 59 59 59 59 58 57 55 53 51 50 50 50 50 51 53 54 55 54
48 48 48 48 49 49 49 50 50 49 49 49 49 50 50 50 50 50 50 50 50 51 51 52 52 53 53 54 54 55 55 56 56 56 55 55 55 55 54 54 53 54 55 56 57 58 58 57 57 55 55 53 51 50 49 49 50 51 52 53 54 55 55
46 46 47 47 47 47 47 47 47 47 47 47 47 48 48 49 49 49 50 50 51 52 52 53 54 54 54 54 54 55 55 55 55 55 55 55 54 54 54 54 54 54 55 55 56 57 58 57 56 55 55 52 50 49 49 50 51 51 52 54 55 55 55
44 45 45 45 45 45 45 45 45 45 46 46 46 47 47 48 49 49 50 50 51 52 52 53 53 54 54 54 54 54 54 55 55 55 55 55 55 55 55 55 55 55 56 56 57 58 58 56 55 55 53 50 49 49 50 51 51 51 52 54 56 56 55
43 43 43 44 44 44 44 44 44 44 44 45 45 46 47 47 48 49 49 50 50 51 52 52 53 53 53 54 54 54 54 55 55 55 56 56 56 56 56 56 56 56 56 56 57 56 55 54 53 52 50 49 50 51 51 51 52 53 54 56 57 57 57
43 43 43 43 43 43 44 44 44 44 44 45 45 45 46 46 47 48 49 50 50 50 50 51 52 52 53 53 53 54 54 55 56 56 56 57 57 57 57 57 57 55 54 55 55 54 52 52 51 50 50 51 51 51 51 52 53 54 56 57 58 57 56
42 42 43 43 43 43 43 43 43 44 44 44 44 45 45 45 45 46 47 48 49 49 49 49 50 51 52 52 52 53 54 55 55 56 56 56 56 55 55 56 55 53 53 52 52 51 51 50 50 50 51 51 52 52 52 53 56 57 56 57 57 57 55
40 40 41 41 41 41 41 41 42 42 42 42 43 43 43 44 44 44 45 46 47 48 49 49 49 49 50 50 51 51 52 52 54 54 54 54 53 53 53 53 52 51 50 49 48 49 49 50 50 51 51 52 53 53 54 56 57 56 55 56 56 56 54
38 38 39 39 39 39 39 39 40 40 40 40 40 41 41 41 42 42 43 44 45 46 47 47 48 49 49 49 49 49 50 50 52 53 52 51 51 51 51 50 48 47 47 46 46 47 48 49 50 50 52 53 54 54 56 58 57 55 55 55 55 54 53
36 36 36 36 36 37 37 37 37 37 38 38 38 38 38 39 39 40 41 41 42 43 44 45 46 47 47 48 48 48 48 48 50 51 50 48 49 49 48 46 44 44 45 45 46 47 48 50 51 52 54 55 56 56 56 57 57 56 55 54 53 53 53
34 34 34 34 34 34 35 35 35 35 36 36 36 36 37 37 38 38 39 39 40 41 42 42 43 44 45 45 46 46 46 46 46 46 46 46 47 46 44 43 43 45 45 47 48 49 51 52 54 55 56 56 57 56 55 55 55 55 54 53 52 51 51
33 33 33 33 33 34 34 35 35 35 35 35 36 36 36 37 37 38 39 40 40 40 40 41 42 42 42 43 44 44 44 44 44 44 44 46 47 46 45 46 47 48 49 51 52 53 55 56 56 56 56 56 55 55 54 53 53 52 52 52 51 50 50
33 33 33 33 33 34 34 35 35 35 35 35 35 35 35 36 36 37 38 40 40 41 41 41 41 41 41 41 42 43 43 44 44 44 45 46 46 46 47 48 50 51 52 53 54 55 56 57 56 56 55 54 54 53 52 51 51 50 50 50 50 50 49
33 33 33 33 32 33 33 34 34 34 34 34 34 34 34 34 35 36 37 38 40 41 41 42 42 42 42 42 42 43 44 45 46 46 46 47 47 47 47 49 51 53 54 54 55 56 56 56 55 54 53 52 50 50 49 49 49 49 48 48 48 48 48
33 34 34 34 34 32 31 32 32 33 33 34 34 33 34 35 35 36 37 39 40 41 42 43 44 45 45 45 46 46 47 47 48 47 48 48 50 50 51 51 52 53 55 56 57 57 57 56 55 53 51 49 47 47 47 48 48 47 47 47 47 47 47
34 34 35 35 34 33 31 31 31 32 32 33 34 35 35 36 37 37 39 40 41 42 43 44 45 46 47 47 48 49 49 50 49 49 49 49 50 50 50 51 51 52 54 56 57 58 58 57 55 53 51 49 48 48 48 48 47 47 46 46 46 46 47
35 35 35 35 33 32 32 32 32 32 33 34 35 36 37 37 38 39 41 42 43 43 44 45 45 46 47 47 48 49 51 51 51 50 50 50 50 51 51 50 50 50 51 53 54 55 56 56 55 55 53 51 50 49 47 47 47 47 46 45 45 46 47
34 35 35 35 33 33 33 33 33 33 33 34 36 37 38 39 39 41 42 44 44 44 44 44 45 45 46 47 48 49 50 50 51 51 51 51 51 51 51 51 51 51 51 52 52 53 54 54 55 55 54 53 51 49 47 46 45 46 45 45 45 46 47
36 36 36 36 36 36 37 36 36 35 34 35 37 38 39 40 41 42 44 45 44 43 43 43 44 44 45 46 48 49 49 50 50 51 51 51 52 51 51 51 51 51 52 52 52 52 53 53 53 54 54 54 53 51 49 47 47 46 46 46 47 49 49
37 38 39 38 38 39 39 40 39 38 37 38 38 39 41 42 43 44 46 45 44 43 44 45 44 44 44 45 46 47 48 48 49 50 50 51 51 52 52 52 52 51 51 52 52 53 53 52 53 54 55 55 55 53 52 51 50 50 50 50 51 51 51
38 39 39 40 40 40 40 41 41 40 40 40 41 42 44 44 43 44 45 44 43 43 45 46 47 47 46 46 46 46 47 47 48 48 49 49 50 50 50 51 51 51 50 51 52 53 53 53 53 54 55 56 56 55 55 54 54 53 53 53 54 54 53
38 38 38 39 41 42 42 43 43 42 43 43 43 46 47 44 43 44 45 44 44 45 46 47 48 48 49 49 49 49 49 48 48 48 49 49 49 49 49 49 50 49 49 50 51 51 52 53 53 54 55 56 56 56 56 55 55 55 55 55 55 55 55
37 38 38 39 40 41 43 44 44 44 44 44 46 47 47 45 44 45 46 46 46 47 47 48 49 49 50 50 51 51 51 51 51 51 51 51 51 50 50 49 49 49 49 50 49 50 51 51 52 52 53 54 54 55 55 55 55 54 54 54 54 54 54
35 37 38 39 39 40 41 42 42 43 44 45 46 47 46 45 46 46 47 47 48 48 48 49 49 50 50 51 51 52 53 53 53 53 53 53 53 52 52 51 50 50 50 50 50 50 50 50 50 51 51 51 51 51 52 52 53 52 51 51 51 51 50
34 36 38 39 39 40 40 40 41 42 44 45 46 46 46 46 46 46 46 46 47 48 49 49 49 50 50 51 51 52 53 53 54 54 54 54 54 54 54 54 53 52 51 51 51 51 50 50 50 50 50 50 50 50 50 51 51 51 50 50 49 49 48
37 37 38 39 40 40 40 40 40 41 42 44 45 46 47 47 47 47 47 47 47 48 49 49 50 50 50 51 51 51 52 53 54 54 54 54 55 55 55 55 55 54 54 53 52 51 51 50 50 50 50 51 51 51 51 51 50 50 50 49 49 49 48

ECMWFFLT1_700_spd_132.txt.gz
Wind_Speed
46 47 48 48 49 49 50 50 50 50 50 51 52 52 53 53 54 55 54 54 54 54 54 55 55 55 55 55 56 57 57 58 59 61 62 63 64 64 65 64 64 66 67 66 66 65 64 63 63 62 62 62 62 62 62 62 62 61 60 59 58 57 57
48 50 50 51 52 52 52 52 52 52 52 52 52 52 53 53 54 55 55 55 56 56 56 57 57 57 57 57 58 58 59 59 60 61 62 63 65 65 65 65 64 65 66 66 66 65 64 64 64 63 62 62 61 61 61 61 61 60 59 58 58 59 59
53 54 55 55 55 55 55 55 55 55 55 56 56 55 55 55 56 57 57 57 58 58 58 59 59 60 59 60 61 60 61 61 61 62 63 63 64 65 65 65 64 64 65 65 65 65 65 64 64 63 63 62 61 60 61 61 61 60 60 60 60 61 61
58 59 59 59 58 58 58 58 58 58 58 58 58 58 58 59 59 59 60 60 60 60 60 61 62 62 62 62 62 62 62 62 62 63 63 63 64 64 65 65 64 63 64 63 63 64 64 63 63 63 62 62 61 61 61 61 61 61 61 62 62 62 62
62 62 61 60 60 60 60 60 60 60 60 60 60 61 61 61 61 62 62 62 62 62 62 63 63 63 63 63 63 63 63 63 63 63 63 63 64 64 64 64 63 62 62 61 61 62 62 62 62 62 62 62 62 62 62 62 62 63 63 63 63 63 63
62 61 60 60 61 61 61 61 61 62 62 62 63 63 63 63 63 63 63 63 63 62 62 63 62 62 62 62 63 62 62 62 61 62 62 62 62 63 62 62 61 60 59 59 58 59 59 60 60 61 61 62 62 62 62 62 62 62 63 63 64 63 63
59 59 59 60 60 60 61 61 62 62 63 63 64 64 64 64 64 64 64 63 62 61 61 60 60 60 60 60 61 60 60 60 60 60 61 60 60 60 60 59 59 58 57 56 56 56 57 58 58 59 60 61 61 61 62 63 63 63 63 63 63 62 61
56 56 57 57 58 58 59 59 60 60 61 61 62 63 63 63 63 62 61 61 60 59 58 58 58 58 58 59 59 59 58 59 59 59 59 58 58 58 57 57 57 56 56 55 54 54 55 56 57 58 60 61 61 63 64 63 62 62 61 61 60 59 59
52 53 53 54 54 54 55 55 56 56 57 58 58 59 59 59 59 58 58 57 57 56 56 56 56 56 57 57 57 58 58 58 57 58 57 57 56 56 56 55 55 55 55 54 54 54 54 55 57 58 60 61 62 62 61 60 59 59 59 58 57 57 57
49 50 51 51 52 52 52 53 53 53 54 55 55 56 56 56 56 56 56 56 55 55 55 55 55 55 55 56 56 56 56 56 56 56 56 55 55 55 54 54 54 54 54 54 54 54 54 55 57 58 59 60 60 59 58 58 58 58 57 56 57 57 57
48 48 49 49 50 50 51 51 51 52 52 53 53 54 55 55 55 55 55 55 55 55 54 54 54 54 54 54 54 54 54 54 53 53 54 54 54 54 54 54 54 54 54 54 55 55 55 56 58 58 58 58 59 59 58 58 58 57 57 57 57 57 57
47 47 48 48 49 49 50 50 50 50 50 51 51 52 53 53 53 53 53 54 54 54 54 54 54 53 53 53 53 53 52 52 52 52 52 53 54 54 55 55 55 55 55 55 56 56 57 58 59 59 59 59 59 58 57 57 57 57 57 57 57 56 56
46 46 47 47 47 48 48 48 48 48 48 49 49 49 50 50 51 51 52 52 52 53 53 53 53 54 53 53 53 53 53 53 53 53 53 53 54 55 55 56 56 56 56 56 57 58 59 59 59 58 58 58 57 56 56 57 58 57 57 56 56 55 54
44 45 45 46 46 46 47 47 47 47 47 48 48 48 48 49 49 49 50 50 51 51 52 52 53 53 53 53 53 53 53 54 53 54 54 54 54 55 55 55 55 55 56 56 56 57 57 57 56 56 56 55 55 55 56 56 56 56 55 54 53 52 52
43 43 44 44 44 45 45 46 46 46 47 47 47 48 48 48 48 48 48 49 50 50 50 51 51 52 52 53 53 53 53 53 53 53 53 54 54 54 54 54 54 54 54 54 55 55 55 54 54 54 54 54 54 55 55 54 54 53 53 54 54 55 56
41 42 42 42 43 43 44 44 45 45 46 46 46 47 47 46 46 47 47 47 47 48 49 50 50 51 51 51 52 52 53 53 53 54 54 54 55 54 54 55 55 54 53 54 54 54 54 53 53 54 54 54 54 54 54 53 53 54 55 56 57 58 58
39 40 40 41 41 41 42 42 43 43 44 44 45 46 45 45 45 45 45 45 45 45 46 47 48 48 49 49 49 50 51 51 52 53 54 54 55 55 55 55 55 54 54 53 53 53 53 53 53 53 53 53 54 54 54 54 55 56 57 57 57 58 58
37 38 38 39 39 40 40 40 40 41 41 42 42 43 43 43 43 43 43 43 43 43 43 44 44 45 46 46 47 47 48 49 50 51 51 52 52 53 54 54 54 53 53 51 50 50 51 52 52 52 52 52 53 53 54 55 56 56 55 55 56 57 56
35 35 36 36 37 37 37 38 38 38 38 39 39 39 40 40 40 40 40 40 40 41 41 42 42 43 44 44 45 45 46 47 48 49 49 49 49 50 51 52 51 51 50 49 48 47 47 48 49 50 50 50 50 52 53 54 54 54 54 55 55 55 55
34 34 34 35 35 36 36 36 36 36 36 37 37 37 38 38 38 38 38 38 39 39 39 39 40 41 42 43 43 44 44 44 45 45 46 46 47 47 47 47 47 48 48 47 47 46 45 45 45 47 49 49 49 50 52 53 53 53 54 55 55 55 55
34 34 35 35 36 36 36 36 36 36 36 36 36 37 37 38 38 38 39 39 39 39 39 39 39 39 40 41 42 43 43 43 42 41 41 43 46 45 44 43 45 46 45 45 45 44 44 44 44 45 47 49 49 50 51 53 53 53 53 53 54 54 54
35 35 35 35 36 36 36 36 37 37 36 36 36 36 37 38 38 39 40 40 40 39 39 39 40 39 39 40 40 41 42 43 42 40 39 40 41 42 41 42 44 44 44 45 45 44 43 44 44 44 45 47 48 49 50 51 52 52 51 51 51 52 53
35 35 35 34 34 34 35 36 36 37 37 37 36 36 36 37 38 39 40 40 40 40 40 40 40 40 39 39 39 40 40 41 42 42 42 41 41 41 42 41 43 45 45 45 45 45 45 44 44 44 45 46 47 48 49 50 51 52 52 52 52 53 53
36 36 36 34 33 32 33 34 35 36 36 37 36 36 36 36 37 38 39 39 40 41 41 40 40 39 39 39 39 39 39 40 42 42 43 43 43 43 44 43 44 46 48 48 48 49 49 48 46 46 46 47 47 47 48 50 51 52 53 54 54 54 54
37 37 37 35 34 33 34 34 35 35 35 36 36 37 37 37 37 38 39 39 40 40 40 41 40 40 40 40 40 40 40 41 41 42 42 43 42 43 43 43 45 46 49 51 52 52 52 52 51 50 49 48 48 49 50 50 51 51 52 52 53 53 53
37 38 37 35 35 35 35 35 34 34 34 35 37 38 39 39 40 40 40 41 41 41 41 41 41 42 42 42 42 43 42 42 43 43 43 43 43 43 43 43 45 46 48 51 53 54 55 55 54 53 52 51 51 51 52 52 51 51 50 50 50 51 51
37 38 36 34 34 35 35 35 34 34 34 35 36 38 39 40 41 41 42 41 41 40 40 41 41 42 43 44 44 45 45 45 45 45 45 45 45 45 45 45 45 47 49 51 53 55 56 56 56 56 55 55 54 53 52 52 52 52 51 50 49 50 50
37 37 36 35 35 36 36 36 35 34 34 35 37 38 39 40 41 42 42 41 40 39 39 40 42 43 45 46 46 47 47 47 47 47 47 47 47 47 47 47 47 47 49 50 52 54 56 57 57 58 57 57 56 55 54 53 52 52 52 51 50 51 51
38 38 38 37 37 38 38 38 37 36 37 37 38 40 42 41 41 43 43 42 42 41 42 43 44 45 46 46 47 48 48 49 49 49 49 49 49 48 48 48 48 48 49 49 51 52 54 55 57 58 58 58 57 57 55 54 54 53 53 52 52 52 52
39 40 40 40 39 39 40 40 39 39 39 40 41 43 44 43 43 44 45 44 43 44 44 45 45 45 46 46 47 47 48 48 49 49 50 50 50 50 50 50 49 49 49 49 50 51 52 53 54 56 57 58 58 58 57 56 56 55 55 55 54 54 53
38 38 39 40 40 40 41 41 41 41 41 42 43 45 44 42 44 46 46 46 45 45 46 46 46 46 47 47 47 48 48 49 49 50 50 50 50 50 50 51 51 50 50 50 50 50 50 51 52 54 55 57 58 59 59 58 57 57 56 56 56 55 54
37 37 38 39 40 41 41 41 41 42 42 43 44 45 44 43 45 46 47 47 47 47 48 48 48 48 48 48 49 49 49 50 50 50 51 51 51 50 50 51 51 51 51 51 50 50 49 49 50 51 53 55 56 58 60 60 59 59 58 58 57 56 55
36 36 37 38 38 39 40 41 41 41 42 43 44 44 43 44 45 46 47 47 47 48 48 49 49 49 50 50 50 50 50 50 50 51 51 52 52 52 51 51 51 51 51 51 51 51 50 49 49 49 49 51 52 54 56 58 59 59 58 58 58 57 57
34 36 37 37 37 38 39 39 40 40 41 42 42 42 43 44 44 45 46 47 47 47 47 47 48 48 48 48 49 49 49 50 50 50 51 51 51 52 52 51 51 51 52 52 52 51 51 50 50 49 48 48 49 50 51 53 54 55 55 56 56 56 56
34 35 36 36 36 37 38 38 39 40 41 42 42 42 41 42 41 41 41 42 42 42 43 43 44 44 44 45 45 46 47 47 47 48 48 49 50 50 50 51 51 51 51 52 52 52 52 51 50 50 49 49 48 48 48 48 49 49 50 50 51 51 52
34 35 35 36 36 36 37 38 38 39 40 40 40 39 39 38 37 37 37 37 37 37 38 39 40 40 40 40 41 41 42 43 43 44 45 45 46 47 47 48 48 49 50 50 51 51 52 52 51 50 50 49 49 49 48 48 47 47 47 46 46 46 47

ECMWFFLT1_700_spd_135.txt.gz
Wind_Speed
42 43 43 43 43 42 42 43 43 44 44 45 46 47 49 50 51 52 52 53 53 53 53 53 54 54 53 53 54 54 54 54 55 55 55 56 56 57 57 58 60 62 62 61 61 61 61 61 62 62 62 62 62 63 63 63 63 63 64 64 64 64 64
45 45 46 46 46 46 46 46 46 46 47 48 49 50 51 52 53 54 54 54 55 55 55 56 56 56 56 55 56 55 55 55 55 56 56 57 58 58 58 59 60 62 63 62 63 63 63 64 65 65 65 65 65 64 64 64 64 64 65 64 64 64 64
50 51 51 52 52 52 52 52 52 52 53 54 54 55 55 56 56 56 56 57 57 56 56 57 57 57 57 57 58 57 57 57 57 58 58 59 59 60 60 61 62 63 64 64 65 65 65 66 67 67 67 67 66 66 65 66 66 66 66 65 66 66 65
56 57 57 57 57 57 57 57 57 58 58 58 58 58 58 57 57 57 58 58 58 58 59 59 59 59 59 59 60 59 59 59 60 60 61 61 61 62 62 63 64 64 65 66 66 67 67 67 67 68 68 68 67 67 67 67 67 67 67 67 67 67 66
60 60 60 60 60 60 60 60 60 60 59 59 59 58 58 57 57 57 58 58 59 60 60 61 61 61 61 62 63 62 62 62 62 62 62 63 63 63 64 64 64 65 65 66 66 67 67 67 67 68 68 68 68 68 68 68 68 68 67 68 68 67 67
57 58 58 59 59 59 59 59 59 59 59 59 59 58 58 58 58 58 58 59 59 60 61 62 62 62 62 64 64 64 64 64 64 63 63 63 63 63 63 63 64 64 64 64 64 65 65 66 66 66 67 67 67 67 67 67 67 67 68 68 68 67 66
52 52 53 53 54 54 54 54 55 55 56 56 57 57 58 58 59 59 59 60 60 60 61 61 62 62 62 63 64 64 64 63 63 63 63 62 61 61 61 61 62 61 62 62 62 62 63 63 63 64 64 64 65 66 66 67 67 68 68 68 67 66 66
47 47 47 48 48 49 49 49 49 50 51 51 53 54 55 56 57 58 58 59 59 60 60 60 61 61 62 62 62 62 62 61 61 60 60 59 58 58 58 59 59 59 60 60 60 61 61 61 61 61 62 62 64 65 66 66 67 67 67 66 66 65 64
44 45 45 45 45 46 46 47 47 48 48 49 49 50 51 51 52 53 54 55 56 57 57 58 59 59 59 59 60 60 59 59 58 58 57 57 56 56 56 57 58 58 59 59 60 60 60 60 60 60 60 62 63 63 63 63 64 64 64 63 63 63 63
43 44 44 44 44 45 46 46 47 48 48 49 49 49 49 49 49 50 51 52 53 54 54 55 55 56 56 56 57 57 57 57 57 56 56 56 55 55 55 56 57 57 58 58 59 59 58 59 60 59 59 60 60 59 60 61 62 62 62 62 62 63 64
42 43 43 43 44 44 45 45 46 46 47 48 49 49 50 50 50 50 50 51 51 52 52 52 53 53 54 54 55 55 56 56 56 56 56 55 54 54 55 55 56 56 56 57 58 57 57 59 59 58 58 58 58 58 59 60 60 61 61 62 63 63 63
42 42 42 42 43 43 43 44 44 45 46 47 48 48 49 50 51 51 51 51 51 51 51 51 51 51 51 52 52 53 53 54 55 55 55 55 54 54 54 55 55 55 55 56 57 57 57 58 57 57 57 57 56 57 57 58 59 60 60 61 62 62 62
41 41 41 41 41 42 42 42 43 44 44 45 46 47 48 49 49 50 50 50 50 51 51 51 51 51 50 49 50 50 51 52 52 53 53 54 54 54 55 55 55 55 55 55 56 57 56 56 55 55 56 55 54 55 55 56 57 58 59 60 61 60 60
40 40 40 40 40 40 41 41 41 42 43 43 44 46 46 46 46 47 47 48 49 50 50 51 51 51 51 50 49 49 49 50 51 51 52 52 53 53 54 54 54 54 54 55 55 56 55 54 54 54 54 53 54 54 55 55 56 57 57 58 58 58 58
38 38 38 38 38 38 39 39 39 40 41 41 42 44 44 43 43 44 45 46 47 48 48 49 50 51 51 51 50 50 49 50 50 50 51 51 51 52 52 52 52 52 52 53 53 54 53 52 52 53 52 52 53 53 53 53 54 54 55 56 57 58 59
35 36 36 36 36 36 36 36 37 37 38 39 40 41 41 41 42 43 43 44 45 46 46 47 48 49 49 49 50 50 50 50 49 49 49 50 50 51 51 51 51 50 50 51 51 52 51 50 51 51 51 51 52 52 52 52 52 53 54 56 58 59 59
32 33 33 33 33 33 32 33 33 34 35 36 37 38 39 40 40 41 41 42 43 43 44 45 46 46 47 47 47 48 48 49 49 49 49 49 49 49 49 50 49 49 49 50 50 50 50 50 50 50 50 51 51 51 51 52 54 54 55 57 58 58 58
29 29 30 30 30 30 30 30 31 32 33 34 35 37 38 39 39 39 40 40 41 42 42 42 42 43 44 45 45 46 46 46 46 47 47 47 47 47 47 48 47 46 47 47 47 48 48 49 49 49 49 50 50 50 51 52 54 54 54 56 57 57 57
26 27 28 29 29 30 30 30 31 31 33 34 35 36 38 38 39 39 39 40 41 40 40 40 40 41 41 42 42 43 43 43 44 44 44 44 45 46 46 45 44 44 45 44 44 45 45 45 46 47 48 49 50 50 51 51 51 52 53 54 54 55 55
27 27 28 28 29 30 30 31 31 32 33 34 34 35 37 38 38 39 40 41 40 39 38 38 39 39 39 40 41 41 41 41 41 40 41 41 42 44 45 44 44 44 44 44 44 44 43 43 43 44 45 47 48 50 51 51 50 51 52 52 53 53 55
27 27 28 29 29 30 31 32 33 33 33 33 34 35 36 38 38 39 41 41 40 39 38 38 38 38 38 38 39 39 40 40 40 40 40 39 40 43 45 45 44 44 43 43 44 44 43 43 43 43 44 46 47 49 51 51 50 50 50 50 51 52 53
28 27 27 28 29 30 31 33 34 33 33 33 34 35 36 37 38 40 41 41 40 39 39 39 38 38 37 37 37 38 39 40 40 41 41 40 41 43 43 43 43 43 43 43 44 44 43 43 43 43 44 44 45 47 49 51 51 49 48 48 48 49 50
28 27 26 27 28 30 32 33 33 34 34 34 35 35 36 37 39 40 41 41 40 40 39 39 39 39 38 38 38 38 38 39 40 40 40 40 41 41 41 40 41 41 42 43 43 43 44 44 43 43 44 44 44 44 45 47 49 48 46 45 45 46 48
30 28 27 26 27 30 32 33 33 33 34 35 36 37 37 38 39 40 40 40 40 40 40 40 40 40 40 40 39 39 39 39 40 40 41 41 41 41 41 40 40 40 41 42 44 44 45 44 44 44 44 44 43 42 41 43 46 47 46 44 44 44 45
31 30 28 27 28 29 30 31 31 31 33 35 37 38 38 39 40 40 40 40 40 40 40 41 42 42 42 42 42 42 42 41 41 42 42 42 42 42 42 42 42 42 42 43 44 46 46 46 46 46 45 44 42 41 40 41 43 45 46 45 45 45 45
31 30 28 27 28 29 30 30 30 30 32 34 36 38 39 39 39 39 39 39 39 39 40 42 43 44 44 44 44 44 44 44 43 43 43 44 44 44 44 44 44 44 44 45 46 47 48 49 49 49 47 46 45 45 44 43 44 45 46 47 47 47 48
32 32 30 29 30 31 31 32 31 31 33 35 37 39 40 39 39 39 39 39 38 39 40 42 43 44 44 45 45 46 46 46 46 46 45 45 45 45 45 45 45 46 46 47 48 48 50 51 51 52 51 50 49 49 48 47 46 47 48 48 48 49 50
32 33 32 32 33 33 34 34 34 34 36 37 39 41 41 40 41 42 41 40 40 40 41 41 42 42 43 44 45 45 46 46 47 47 47 47 46 46 46 46 46 47 47 48 49 50 51 52 53 54 54 54 54 53 51 50 49 50 50 50 51 51 52
34 35 35 35 35 36 36 36 35 36 37 38 40 42 41 41 43 44 43 42 43 43 43 43 43 43 43 43 44 44 45 45 46 46 47 47 47 47 47 47 48 48 48 49 49 50 51 52 53 54 56 57 57 56 55 54 53 52 53 53 54 54 54
35 37 37 37 36 37 37 37 36 36 37 38 39 40 39 40 43 44 42 42 43 44 44 44 44 45 45 45 45 45 45 45 45 46 46 46 47 47 48 48 48 49 49 49 50 50 51 52 52 54 55 56 58 58 57 56 55 54 54 55 55 55 54
34 35 36 37 37 37 37 37 37 37 37 38 39 39 38 39 41 42 42 42 43 43 44 44 44 44 45 45 45 45 45 45 46 46 46 46 46 47 47 48 48 49 49 50 50 51 51 52 52 53 53 55 56 57 57 57 56 55 55 55 55 55 54
32 33 34 35 36 37 37 36 36 36 37 37 38 38 37 38 39 40 39 40 40 41 41 41 41 41 41 41 42 42 42 42 43 43 44 44 44 45 45 46 47 48 48 49 50 50 51 52 52 53 53 53 54 55 56 56 56 55 55 55 55 55 55
31 31 32 33 34 35 35 35 35 35 35 35 35 35 35 35 35 36 36 36 36 36 37 37 37 38 38 38 38 38 38 38 39 39 40 41 41 42 42 43 44 46 47 48 49 49 50 51 51 52 53 53 53 53 53 54 54 54 53 53 53 54 54
29 29 30 30 31 31 32 32 31 31 31 30 30 30 31 31 32 33 33 33 34 34 34 34 34 35 35 35 35 35 35 35 35 35 36 37 37 38 39 39 40 41 43 44 46 47 48 49 50 51 51 52 52 52 52 52 52 52 52 51 50 50 51
27 28 27 27 27 27 27 27 26 26 27 27 27 27 28 28 28 29 29 30 31 31 32 32 31 31 31 31 31 31 31 31 31 32 32 33 33 34 35 36 36 37 38 39 41 43 45 46 48 49 49 50 51 51 51 51 51 50 50 50 48 47 48
26 26 25 24 23 23 23 23 24 24 25 26 27 27 27 27 26 26 26 27 27 28 29 29 29 29 29 28 28 28 28 28 28 28 29 29 30 31 31 32 33 33 34 35 36 37 39 41 43 45 46 48 49 50 50 50 50 50 49 49 48 47 46

ECMWFFLT1_700_spd_138.txt.gz
Wind_Speed
42 42 43 43 43 43 44 44 44 44 45 46 46 47 47 47 48 48 47 47 47 47 47 47 47 48 48 49 50 51 51 52 52 52 53 53 53 54 55 55 56 59 61 60 58 57 59 61 60 57 56 55 56 56 56 56 56 57 58 59 60 60 60
46 46 46 46 46 47 47 47 48 48 48 49 49 49 50 50 50 51 50 50 50 49 50 49 49 49 50 51 52 53 54 55 55 56 56 56 56 57 57 57 58 59 61 62 61 60 60 62 63 60 59 58 58 58 57 57 58 58 59 61 61 61 61
50 50 50 51 51 51 51 52 52 52 53 53 53 54 54 55 55 55 55 55 55 54 55 55 54 54 54 55 55 55 56 57 59 59 59 59 59 59 60 60 60 61 62 63 62 61 62 64 64 62 61 61 60 59 60 60 60 60 61 62 63 64 64
53 54 54 55 55 56 56 56 57 57 57 58 58 59 59 59 59 59 59 59 59 60 60 60 59 58 58 58 58 57 57 59 60 61 62 62 62 62 62 63 63 63 63 64 64 63 63 65 66 65 64 63 63 62 63 63 63 63 64 65 65 66 66
52 53 53 54 54 55 55 55 55 56 56 56 57 58 58 59 59 59 59 59 59 59 60 60 60 59 58 59 59 59 59 59 61 62 63 63 64 64 64 64 65 65 65 65 65 65 64 65 67 68 67 66 65 65 66 66 66 66 66 67 67 67 68
49 49 50 51 51 51 51 51 51 51 52 52 53 54 54 55 56 56 57 57 57 57 57 57 57 57 58 58 59 59 60 61 62 63 63 64 64 65 65 66 66 66 66 66 66 65 65 66 67 69 70 69 68 67 68 68 68 68 68 69 69 68 68
47 47 47 48 48 49 49 49 49 49 50 50 50 51 51 51 52 52 53 53 54 54 54 55 55 55 56 57 57 58 59 60 62 63 64 64 64 65 65 66 66 66 66 66 65 64 64 64 65 67 68 69 69 68 68 69 69 69 69 69 69 68 68
46 46 46 47 47 47 48 48 49 49 48 49 48 48 49 49 49 49 49 50 50 51 52 53 53 54 54 55 55 56 57 58 59 61 62 62 63 63 64 64 64 64 64 64 63 63 63 62 63 65 66 67 68 69 68 68 68 68 67 67 66 66 65
46 45 46 46 46 47 47 47 47 47 47 47 48 48 48 47 48 48 48 49 49 50 50 51 52 52 52 53 53 54 55 56 56 58 59 59 60 60 61 61 61 61 61 61 61 61 61 60 61 63 64 65 66 67 65 64 64 63 63 63 63 63 63
45 45 45 45 46 46 46 46 46 46 46 46 47 47 47 47 47 48 48 49 49 49 49 50 50 51 52 52 53 53 54 54 55 56 57 57 57 57 58 58 59 59 58 58 59 59 58 59 60 59 61 62 61 61 61 61 61 61 61 61 61 62 61
43 44 44 44 44 45 45 45 46 46 46 46 46 46 47 47 47 47 48 48 48 48 48 48 49 50 51 52 53 54 54 54 55 55 55 56 56 56 56 57 58 58 58 58 58 58 57 59 59 57 58 59 58 58 60 60 60 60 60 61 62 62 61
42 42 42 42 43 43 44 44 44 44 45 45 45 46 47 47 47 48 47 47 47 47 48 48 48 48 49 50 52 53 54 54 55 55 55 56 56 56 56 57 57 58 58 58 58 59 59 59 59 57 58 58 57 57 59 60 60 60 60 61 62 61 61
40 40 41 41 41 41 42 42 42 42 43 43 43 44 46 46 46 46 46 46 46 47 47 48 48 48 48 48 49 50 51 52 53 54 55 55 56 56 56 57 57 57 58 58 58 60 60 59 59 59 58 58 57 58 59 60 59 59 60 61 61 60 60
37 38 39 39 39 39 39 40 40 40 40 41 41 42 44 44 43 43 44 44 45 45 46 46 47 48 48 48 48 48 49 50 50 51 53 53 54 55 56 56 57 57 57 58 59 60 60 58 58 59 58 57 57 59 59 59 59 58 59 59 58 57 58
35 35 36 36 36 36 37 37 37 37 38 38 39 40 41 42 40 40 41 42 43 44 44 45 45 46 47 47 47 47 47 48 49 50 51 52 52 53 54 55 56 56 57 58 58 59 60 58 58 58 57 56 57 58 58 58 58 57 58 58 58 58 60
33 33 33 33 33 33 33 34 34 34 35 35 36 37 38 38 38 38 38 39 40 41 42 43 43 43 44 44 45 45 46 46 47 48 50 50 51 52 53 54 54 54 55 56 57 57 58 58 57 57 56 56 57 58 58 57 57 57 57 58 59 60 61
30 30 30 30 30 30 30 30 31 32 32 33 34 34 35 36 36 36 36 37 38 39 40 40 40 41 42 42 43 43 44 44 45 47 48 49 50 51 52 53 53 53 54 55 55 55 55 56 56 55 55 55 56 57 57 56 58 58 58 58 59 60 60
27 28 28 28 28 27 28 28 29 30 31 31 32 33 34 35 35 35 35 36 38 38 38 37 38 39 41 42 42 43 43 44 45 46 46 48 49 50 51 52 52 53 54 54 54 54 54 54 55 55 55 54 54 55 56 57 57 57 57 58 59 59 59
25 26 26 26 26 26 27 27 28 29 29 30 31 32 33 34 35 36 36 37 37 36 35 35 36 37 39 40 41 42 43 43 44 46 47 48 49 50 51 52 52 52 53 52 53 53 53 53 53 53 54 53 53 54 56 58 57 56 56 57 58 57 58
23 24 25 25 25 26 26 27 27 28 28 29 30 32 34 35 36 37 38 39 37 34 34 35 36 36 37 38 40 41 43 43 45 47 48 47 47 49 51 52 51 50 49 49 50 50 51 51 51 52 52 52 52 52 54 57 57 56 56 57 56 56 57
22 23 23 24 25 26 27 28 27 27 28 30 31 32 34 35 37 38 39 39 37 35 36 36 36 36 37 38 40 41 42 44 45 46 46 45 46 49 51 51 49 48 48 47 47 47 47 48 49 50 51 51 51 51 51 53 56 57 56 55 55 56 56
21 22 23 23 25 27 28 28 27 27 29 30 31 32 33 35 37 38 37 37 37 37 37 37 38 38 38 39 40 41 43 44 44 45 45 46 47 48 49 48 48 49 48 48 47 46 46 46 46 47 48 49 51 51 50 50 54 56 56 54 54 54 55
21 21 22 23 25 27 28 28 28 28 29 30 31 32 33 36 38 37 36 38 39 39 39 39 40 41 41 41 42 42 43 44 44 45 45 46 46 46 47 48 48 48 48 48 48 47 47 47 46 46 46 47 49 50 50 50 51 53 54 54 53 52 52
20 20 21 22 24 26 26 26 27 29 31 32 32 33 34 36 37 37 37 38 39 40 41 42 43 43 43 43 43 44 44 45 45 46 46 46 46 46 47 47 48 48 48 48 48 48 48 48 47 47 46 46 46 48 49 50 51 52 52 53 52 51 50
20 19 20 22 23 24 25 26 27 30 32 34 35 35 34 35 36 36 37 38 39 41 42 43 44 44 45 45 45 46 46 46 47 48 48 48 48 47 47 48 48 49 49 49 49 48 48 48 48 48 48 47 47 47 47 49 50 51 52 53 53 52 50
21 19 20 22 23 24 25 26 27 30 32 34 36 37 35 34 36 36 36 37 39 41 42 42 43 44 45 45 46 46 47 47 48 48 49 50 50 50 50 50 49 49 49 50 50 50 49 49 50 50 50 50 49 48 47 47 48 50 52 53 54 54 53
22 21 21 23 24 25 26 26 27 30 32 33 36 36 34 35 37 36 34 35 37 39 39 40 41 42 43 44 44 45 46 47 47 48 48 49 50 51 51 52 52 52 51 51 51 51 51 51 51 51 51 52 52 51 49 48 48 49 50 52 53 54 54
24 22 22 24 25 25 26 26 27 29 30 32 34 33 33 35 35 33 32 34 35 36 37 38 39 40 41 42 43 44 44 45 46 46 47 48 48 49 50 51 52 52 53 53 52 52 52 52 52 52 52 52 54 54 53 52 51 51 51 51 52 54 54
25 24 24 25 26 26 25 26 27 28 29 30 30 30 31 33 32 31 31 33 34 34 36 36 37 38 39 40 41 41 42 43 43 44 44 45 46 48 49 50 51 52 52 53 53 53 53 53 53 53 53 53 54 55 56 55 55 54 53 53 53 54 54
27 27 26 26 26 26 26 26 27 27 27 28 28 28 29 31 30 30 31 32 33 33 34 35 36 36 37 38 38 38 39 39 40 40 40 41 42 43 45 47 49 50 51 52 52 53 54 54 54 54 54 54 54 55 57 57 57 57 57 56 56 56 55
27 28 27 27 27 26 26 26 26 26 26 25 25 25 27 28 29 29 30 31 31 32 32 33 33 34 34 35 35 36 36 36 36 37 37 37 37 38 39 41 43 45 47 49 51 52 53 53 54 54 54 55 55 55 56 57 57 59 59 59 59 59 58
25 27 27 27 26 25 24 23 22 22 23 23 24 24 25 27 27 28 28 29 29 29 29 30 30 31 31 31 32 32 33 33 34 34 34 34 34 34 35 36 37 39 41 44 46 48 50 51 53 54 54 55 55 55 56 56 57 58 59 59 59 60 60
23 24 25 25 24 23 21 20 19 19 20 22 23 24 24 25 24 24 25 25 26 26 27 28 29 29 29 30 30 30 30 30 31 31 31 31 31 31 32 32 33 34 35 37 40 42 45 47 50 51 53 54 54 55 56 56 56 57 58 58 58 59 59
21 22 22 22 21 19 18 17 17 18 20 22 23 23 22 22 22 22 22 23 25 25 26 27 27 28 29 29 29 29 29 29 29 29 29 29 29 29 29 29 30 30 31 32 34 36 39 41 44 46 49 51 52 53 54 55 55 56 56 56 56 56 56
19 19 19 18 16 15 14 15 16 17 19 20 20 20 20 20 21 22 22 23 24 24 25 26 27 27 28 29 29 29 29 29 29 28 28 28 28 28 28 28 28 28 28 29 30 31 33 35 37 40 43 45 48 49 51 53 54 55 55 55 55 55 54
17 16 15 13 11 11 12 13 14 16 17 17 17 17 18 18 19 20 21 21 22 23 24 25 26 27 28 28 29 29 29 30 29 29 28 28 28 27 27 27 26 26 25 26 26 27 29 30 32 34 36 39 42 44 46 49 51 52 53 54 54 54 53

ECMWFFLT1_700_spd_144.txt.gz
Wind_Speed
46 47 46 46 46 46 46 46 45 45 45 45 45 45 45 44 44 44 44 44 44 44 45 45 45 45 45 45 45 45 45 45 45 45 44 44 45 45 46 46 47 50 51 51 49 48 48 47 46 47 49 50 50 51 50 49 48 46 46 46 45 44 45
45 46 47 47 47 47 47 47 47 47 46 46 47 47 47 47 46 46 45 45 45 44 45 45 45 45 45 45 45 45 45 45 45 45 45 45 45 46 46 46 48 50 52 52 51 50 50 49 49 49 49 50 51 52 52 52 52 50 49 48 48 47 45
44 45 46 47 48 48 48 48 48 48 48 47 48 48 48 48 48 48 48 47 47 46 46 46 47 47 47 46 46 46 46 46 47 47 47 47 47 48 48 49 50 51 53 54 53 53 52 52 52 52 51 51 52 53 54 55 55 54 53 52 51 51 50
45 44 44 46 47 48 48 48 48 48 47 47 48 48 49 49 49 49 49 49 49 49 49 49 49 49 49 49 49 49 49 49 50 50 50 50 50 51 51 52 53 54 54 55 55 54 54 54 55 54 53 53 54 55 56 57 57 57 57 55 54 54 54
44 45 44 44 45 46 48 48 48 48 47 48 48 48 48 48 48 49 49 49 49 50 50 51 51 52 53 53 53 53 53 54 54 54 54 54 54 54 55 55 56 56 56 57 58 57 57 58 58 58 57 57 57 58 58 59 60 61 60 59 58 56 56
43 44 44 44 43 44 45 46 47 48 48 48 47 47 46 47 47 47 48 49 50 50 51 51 52 53 53 54 54 55 55 56 57 57 58 58 58 58 59 59 60 60 60 61 62 62 62 62 62 63 62 62 62 61 61 61 62 64 64 64 62 60 58
43 43 43 43 43 43 43 44 45 47 47 47 47 46 46 47 47 47 47 47 48 48 49 50 51 52 52 52 53 53 54 54 55 55 56 56 57 57 58 59 59 59 60 61 62 62 63 63 63 63 63 63 62 62 62 62 63 65 66 66 66 64 62
42 42 42 42 42 42 42 42 43 44 45 46 46 46 46 46 46 47 47 46 46 46 47 48 48 49 50 50 50 51 51 52 52 52 53 53 53 54 55 55 56 56 57 57 58 59 60 60 60 61 61 61 61 61 62 61 62 63 65 66 67 67 65
41 41 41 41 40 40 40 40 40 41 42 43 45 46 46 46 46 46 46 47 47 47 47 46 47 47 47 48 48 48 49 49 50 51 51 52 52 53 53 54 54 55 55 56 57 58 58 58 59 59 60 60 60 61 60 59 59 61 63 64 66 68 68
39 40 40 40 39 38 38 38 38 38 39 40 41 43 44 45 46 46 47 47 47 47 46 45 45 45 45 46 47 47 47 48 49 50 50 51 51 52 53 53 54 54 55 55 56 57 57 58 59 59 59 60 60 60 60 60 60 61 61 62 65 67 68
39 39 39 38 37 37 36 36 36 36 36 37 38 40 41 43 44 45 46 46 46 44 43 43 43 44 45 46 46 46 47 48 48 49 50 50 51 51 52 53 53 54 54 55 56 57 57 58 58 58 58 59 60 60 60 60 61 61 61 62 64 66 66
39 38 37 36 36 35 34 34 34 34 34 34 35 37 38 40 41 42 42 42 41 41 41 42 43 44 45 45 45 46 46 47 48 48 49 49 50 50 51 52 53 53 54 55 56 56 57 57 58 57 57 58 59 59 60 60 61 62 62 63 64 65 66
38 38 37 35 35 34 33 32 32 32 32 32 33 34 36 36 37 37 37 37 37 39 40 42 42 42 43 44 44 45 45 46 47 48 49 49 50 50 50 51 52 52 53 54 54 55 56 56 56 57 57 57 58 58 59 60 61 61 62 63 64 65 65
36 36 36 35 34 33 32 31 31 31 31 31 31 32 34 33 32 32 33 33 35 37 38 39 39 40 41 41 42 43 44 45 46 47 48 49 49 50 50 50 51 51 51 52 53 55 55 55 55 57 57 57 58 59 59 60 60 60 61 62 63 63 63
34 34 33 33 33 32 31 30 29 29 29 29 29 31 30 29 29 30 30 30 31 32 34 34 35 36 37 38 39 40 41 42 44 45 46 47 47 48 48 48 48 49 50 50 51 52 53 54 54 55 56 57 57 58 58 58 59 59 60 61 62 62 62
31 31 31 31 31 30 29 28 28 27 27 27 28 29 27 26 28 29 28 28 28 28 30 30 31 32 32 33 35 37 38 40 41 42 43 44 44 44 45 45 45 46 46 47 48 49 50 51 51 52 53 53 54 55 56 57 59 60 60 61 62 63 63
29 29 29 28 28 28 27 27 26 26 26 26 26 26 25 24 26 27 27 26 26 26 27 28 29 29 30 31 33 34 35 37 38 39 40 41 42 42 42 42 42 43 45 45 46 47 47 48 49 50 51 51 52 53 53 55 58 59 59 60 61 63 63
27 27 27 26 26 25 25 25 25 25 24 24 25 25 24 23 24 25 25 24 24 25 25 26 27 29 29 30 31 32 34 35 37 38 39 40 41 41 40 41 42 44 45 45 45 45 46 47 47 48 50 50 50 51 51 53 55 56 56 57 59 60 60
26 25 24 23 23 23 23 23 24 23 23 23 23 25 24 23 23 22 22 22 23 24 25 26 27 29 29 30 30 31 33 35 37 39 40 41 42 42 43 44 45 46 46 45 45 45 47 48 48 49 49 49 50 50 50 51 53 54 54 56 57 57 57
23 22 21 21 21 21 21 22 22 22 22 21 23 25 25 23 20 20 20 22 24 25 27 28 28 28 29 29 30 32 33 34 36 38 39 40 42 44 45 45 45 45 46 47 47 47 47 48 48 49 49 50 50 50 50 51 52 53 54 55 57 57 57
20 20 19 19 19 20 20 20 20 20 20 21 22 25 25 22 19 19 21 23 25 26 27 28 27 28 28 29 30 32 33 34 36 37 38 40 42 44 45 45 45 46 47 48 48 48 48 48 48 49 50 50 51 52 53 53 54 54 54 55 57 58 58
18 17 17 17 18 19 19 19 19 19 20 19 21 24 25 21 18 19 22 25 26 26 27 27 28 28 29 30 32 33 34 35 36 37 38 40 42 43 44 46 47 47 48 48 49 50 50 50 50 50 51 51 52 53 53 54 54 54 54 54 56 57 59
16 15 15 15 17 18 17 18 19 19 18 18 19 23 24 21 18 20 23 25 26 26 27 28 29 29 30 31 32 32 33 34 35 36 37 38 39 41 42 44 45 46 47 48 49 50 50 51 51 51 52 52 53 54 54 55 55 54 54 54 55 56 58
14 14 14 15 16 17 16 17 18 17 16 17 18 21 22 21 20 22 24 25 26 27 27 28 28 29 29 29 30 30 31 32 33 34 35 36 37 39 40 42 43 45 46 47 48 49 50 51 51 52 52 53 53 54 55 55 56 56 56 56 56 57 57
13 13 14 15 16 16 15 16 17 16 16 16 17 19 21 21 22 24 25 25 25 26 26 26 26 26 27 27 28 29 29 30 31 32 33 35 36 37 38 40 41 43 44 46 48 49 51 51 52 53 53 53 54 54 55 56 56 57 57 57 58 58 58
12 12 13 14 14 14 15 16 16 16 15 15 16 18 19 21 22 23 23 22 23 23 23 23 23 24 24 25 25 26 26 26 27 28 28 29 30 32 33 34 36 38 40 42 44 46 48 50 51 53 54 54 55 55 55 56 57 57 57 57 57 58 58
11 11 12 13 13 14 15 16 16 16 15 14 15 16 17 19 20 20 19 19 20 20 20 21 21 21 21 20 20 20 19 20 20 21 22 23 24 26 27 29 30 32 34 36 37 39 41 44 46 48 50 52 53 54 54 55 56 57 57 57 57 58 58
10 11 12 13 13 14 15 16 16 16 15 13 14 14 14 16 17 17 16 17 17 17 17 17 16 15 14 14 14 14 15 16 17 18 19 20 21 23 24 26 27 29 30 32 33 35 37 38 40 42 44 46 48 50 51 52 54 55 56 57 57 57 58
10 10 12 13 12 13 15 16 15 16 15 14 12 11 11 12 14 14 14 14 13 12 11 10 9 9 10 11 12 13 14 16 17 18 20 21 22 23 24 26 27 28 29 30 32 33 34 35 37 38 39 41 43 44 46 48 49 51 52 54 55 56 56
10 10 12 12 11 12 15 15 14 14 14 13 11 10 9 9 10 11 10 9 7 6 5 5 6 8 9 10 11 13 14 16 17 19 20 21 23 24 25 26 28 29 30 31 32 33 34 35 35 36 37 38 39 40 42 43 44 46 47 49 51 53 54
10 10 10 11 11 12 13 14 13 12 11 10 9 9 8 8 7 6 5 3 3 3 4 5 6 8 9 11 12 14 15 16 18 19 20 22 23 24 26 27 28 29 30 31 32 33 34 35 35 36 36 37 38 38 38 39 40 41 43 44 46 48 49
11 10 10 10 11 11 12 12 11 9 8 8 8 7 6 4 3 2 1 1 2 4 5 7 8 9 11 12 14 15 16 17 19 20 21 22 23 24 26 27 28 30 31 32 33 33 34 34 35 36 36 36 37 37 37 36 37 37 38 39 41 42 44
10 10 10 10 10 11 11 9 8 7 6 6 6 4 2 1 1 1 2 3 5 6 7 9 10 12 13 14 15 16 17 18 19 21 22 23 23 25 26 27 29 30 31 32 33 34 34 34 35 35 35 36 35 35 35 35 34 34 34 35 36 37 39
10 10 10 10 9 9 8 7 6 5 5 4 3 2 1 2 2 3 4 6 7 9 10 11 13 13 14 15 16 17 18 19 20 21 22 23 24 25 26 27 28 30 31 32 33 34 34 35 35 35 35 35 34 34 34 33 33 32 32 31 32 33 34
10 10 10 9 8 7 6 5 5 4 3 2 2 1 2 3 4 5 6 8 10 11 12 13 13 14 15 16 17 18 19 20 21 22 23 24 24 25 26 26 28 29 30 31 32 33 34 35 35 35 35 35 34 33 32 31 31 30 30 29 29 29 30
11 11 10 9 8 7 6 5 5 4 2 1 1 2 2 3 5 6 8 10 11 12 12 13 13 14 16 17 18 19 20 21 22 23 24 24 25 25 26 26 27 28 29 30 31 33 34 35 35 35 35 35 35 34 32 31 30 29 28 28 27 27 26

ECMWFFLT1_700_spd_150.txt.gz
Wind_Speed
38 39 39 39 39 40 42 45 47 50 52 53 52 50 50 50 51 52 53 54 52 51 50 49 47 46 45 45 46 46 47 48 48 49 50 50 51 50 50 50 51 53 54 53 53 52 52 53 54 55 55 55 55 55 55 56 55 54 53 52 50 48 48
38 38 38 38 38 38 39 41 43 45 48 51 53 52 51 49 49 50 52 53 53 52 51 51 50 49 47 46 46 45 46 46 47 47 48 49 50 50 50 50 51 52 54 55 54 53 53 54 56 57 57 57 56 55 53 52 51 50 50 49 48 47 47
38 38 38 38 38 38 38 39 40 41 43 47 50 52 52 50 48 49 50 51 53 53 52 52 52 51 50 49 48 47 46 46 46 46 47 47 47 48 49 50 50 51 52 53 53 53 53 53 53 54 54 54 53 52 51 50 48 48 48 48 48 47 46
39 39 39 39 38 38 38 38 39 39 40 42 45 48 50 50 49 48 48 49 51 52 53 53 53 52 51 50 50 49 48 47 47 46 46 46 46 46 47 47 48 49 49 50 51 51 51 51 50 51 51 50 50 50 50 49 48 47 47 47 47 47 47
39 39 40 40 40 39 38 38 38 39 38 39 41 43 46 48 48 47 46 47 48 50 52 54 54 54 53 51 50 49 49 48 48 48 47 47 46 46 46 46 46 46 47 47 48 48 48 48 48 48 48 48 48 48 48 48 47 47 46 46 47 47 48
40 40 41 41 42 41 40 39 38 38 38 38 39 40 42 44 46 46 46 46 46 47 49 51 53 54 55 53 51 49 49 49 49 48 48 47 47 47 46 46 46 46 46 46 46 47 47 47 47 47 46 46 46 46 47 47 47 46 47 47 47 47 48
40 40 41 42 43 43 41 40 39 39 38 38 38 38 39 40 42 44 45 46 45 45 46 48 50 52 53 55 54 52 50 49 48 48 48 48 48 48 47 47 47 47 47 47 47 47 48 48 48 48 47 47 47 47 47 48 48 48 48 48 48 49 49
40 39 40 41 42 43 42 41 39 39 38 38 37 37 38 39 40 41 43 44 45 44 44 46 47 48 50 51 53 54 53 51 49 48 47 47 48 49 48 48 48 48 48 48 48 49 49 50 50 50 51 50 50 49 50 50 51 52 51 51 52 52 53
39 38 38 39 40 41 41 40 39 39 39 38 37 37 38 38 39 39 40 42 43 43 43 44 45 46 47 48 49 51 52 53 52 50 49 48 48 47 47 48 48 48 48 49 49 49 50 50 51 52 52 53 53 53 53 53 54 55 55 55 56 56 56
39 38 38 38 38 39 40 39 39 39 38 38 37 37 37 38 38 38 38 39 41 42 42 42 43 43 44 45 46 47 48 49 51 51 52 51 50 50 49 48 48 48 48 48 49 49 49 50 51 52 53 53 54 55 55 55 56 56 57 58 58 58 57
41 40 39 38 38 38 39 39 38 38 37 37 37 36 37 37 37 37 37 38 38 39 40 40 40 41 41 42 44 45 46 47 48 48 49 49 50 50 51 51 51 50 50 50 50 50 51 51 52 53 53 54 54 54 54 55 55 56 56 57 58 58 58
41 41 40 39 38 38 37 37 37 37 36 36 35 35 35 36 36 36 36 36 36 36 37 37 37 38 39 40 41 43 45 45 46 46 46 47 47 47 48 49 49 50 50 50 50 51 51 52 53 53 54 55 55 54 54 54 54 54 55 56 57 57 57
41 40 40 39 39 38 37 36 36 35 35 34 33 32 34 35 35 35 35 34 34 34 35 35 36 37 38 39 40 41 42 43 44 45 45 46 46 46 46 47 47 48 48 48 48 49 50 51 51 52 53 53 54 54 54 54 54 54 55 55 56 56 56
40 40 41 40 40 39 37 36 35 34 33 32 30 30 33 34 34 33 33 33 33 33 33 34 34 34 35 36 37 38 39 41 41 42 44 44 45 45 45 46 46 47 47 47 47 48 48 48 49 50 51 52 53 53 54 54 54 54 54 55 55 56 55
40 41 41 41 40 39 37 35 34 32 31 29 28 29 31 32 31 31 32 32 32 32 31 31 31 31 31 32 33 35 37 38 38 39 41 42 42 42 42 43 44 44 45 46 46 47 47 47 48 49 51 52 52 53 53 54 54 54 54 55 55 55 55
42 42 42 41 39 37 35 33 31 29 28 26 26 28 30 30 29 30 30 31 31 30 30 29 28 27 27 29 31 32 34 35 35 35 36 37 38 38 39 39 39 40 41 42 43 44 45 46 47 48 49 51 51 51 51 52 53 54 54 54 55 54 54
43 42 40 39 37 34 31 29 28 27 25 23 23 26 29 28 27 28 28 29 29 28 28 27 25 23 24 27 29 31 32 33 32 32 32 32 34 34 34 34 35 36 37 38 39 41 41 42 43 44 45 46 47 48 48 48 50 51 51 52 52 52 53
41 39 37 35 32 29 26 26 25 24 22 21 22 25 27 25 24 25 25 25 25 25 25 24 23 21 22 24 26 29 31 31 29 27 27 28 29 29 30 30 31 32 33 34 35 36 37 38 38 39 40 41 42 43 44 45 46 47 47 48 49 50 50
37 34 32 30 27 24 23 23 23 21 20 20 22 24 24 22 21 21 22 21 22 22 23 22 21 20 20 21 24 26 29 28 25 23 24 25 25 26 27 27 27 29 30 31 32 33 33 34 35 36 37 38 39 41 42 43 45 46 46 47 48 49 49
31 29 27 25 23 21 20 20 20 18 17 20 21 21 20 19 18 18 18 19 20 21 21 20 19 18 17 19 21 23 25 25 22 20 22 23 23 23 24 25 25 26 27 29 30 31 32 34 35 36 37 38 39 41 42 43 45 46 47 48 49 50 51
26 24 23 21 19 18 16 17 17 16 16 19 21 18 16 15 15 15 17 18 19 19 18 17 17 16 17 18 19 19 21 22 21 20 21 22 22 23 23 24 25 26 26 28 29 30 32 33 34 36 37 38 39 40 42 43 45 46 47 49 49 50 51
23 21 20 18 16 14 13 14 16 15 15 18 19 15 12 12 13 15 17 17 17 16 16 16 16 16 16 17 17 18 19 20 21 21 21 22 23 23 24 24 25 26 26 27 28 29 30 31 32 33 35 36 37 38 39 40 42 44 45 47 48 50 51
20 18 16 14 12 12 12 13 14 15 15 17 17 13 9 9 13 15 15 14 14 14 15 15 16 16 16 17 17 18 19 20 20 21 21 22 22 23 23 23 23 24 24 24 24 25 26 27 28 29 29 30 31 32 33 34 36 37 40 42 44 46 49
16 14 13 12 11 11 12 12 13 14 15 15 15 11 8 9 12 13 13 12 13 13 14 14 15 15 15 16 16 17 17 18 18 18 18 18 19 19 18 18 18 18 18 18 18 18 19 19 20 21 22 23 24 25 26 27 29 31 32 34 37 39 42
13 12 11 10 10 11 11 11 12 12 14 14 13 11 10 10 10 10 11 11 12 12 12 12 13 13 12 13 13 14 14 14 14 14 13 13 13 12 12 11 11 11 11 11 12 12 13 14 15 16 17 18 19 21 22 23 25 27 28 30 32 34 37
11 10 9 10 10 10 10 10 10 11 12 13 12 11 11 10 9 8 9 10 10 9 9 9 9 9 9 10 10 9 9 9 9 8 8 7 7 6 6 6 7 7 8 9 10 11 12 13 14 15 17 18 19 20 21 22 23 25 26 28 30 32 34
9 8 8 9 10 9 9 9 9 9 10 11 11 12 10 8 7 7 7 7 7 7 7 7 7 7 6 6 6 5 5 5 5 4 4 4 4 4 5 6 7 8 9 10 11 12 13 14 16 17 18 19 19 20 21 22 23 24 25 27 28 30 32
8 7 8 9 9 9 9 9 8 8 8 8 10 12 10 7 6 5 5 5 5 5 5 5 4 4 4 4 5 5 4 4 3 3 3 3 4 5 6 7 8 9 10 11 12 13 14 15 16 17 18 19 20 21 22 23 24 25 26 27 28 30 31
6 7 8 9 9 9 8 8 8 8 7 6 8 10 9 6 4 4 4 4 4 4 4 4 5 5 5 5 5 4 3 3 3 3 3 4 5 6 7 8 9 10 11 12 13 14 15 16 17 17 18 19 20 21 22 23 24 26 27 28 29 30 31
4 7 9 10 10 9 7 7 8 8 7 6 6 7 7 4 3 4 4 4 4 5 5 6 6 6 5 4 4 3 3 2 2 3 4 5 6 7 9 10 11 11 12 13 14 15 15 16 17 18 19 20 21 22 23 23 24 25 26 27 28 29 30
3 6 9 10 10 9 7 7 8 8 7 5 4 5 5 4 3 4 4 5 6 7 7 6 6 5 3 3 2 1 1 2 3 4 6 7 8 9 10 11 11 12 13 13 14 15 15 16 17 18 18 19 20 21 22 22 23 24 25 26 28 29 31
4 5 7 9 11 10 8 7 7 7 6 5 4 4 4 4 4 5 6 7 8 7 6 5 4 3 2 1 1 1 3 4 5 6 8 9 10 10 11 12 12 12 13 13 14 15 15 16 16 17 18 18 19 20 20 21 22 23 25 27 28 30 32
6 5 6 7 9 10 9 7 6 6 5 4 4 3 4 6 7 8 8 8 7 6 4 3 2 2 1 0 1 3 4 5 6 8 8 9 10 11 12 12 12 12 13 13 14 14 15 15 16 16 17 18 19 20 21 22 24 25 26 28 29 31 32
6 6 6 6 7 9 8 7 6 6 5 5 4 4 6 8 9 9 8 7 5 4 3 2 2 2 1 0 2 3 4 6 7 8 9 10 10 11 11 11 11 12 12 13 13 13 14 15 16 17 18 19 20 21 22 24 25 26 27 28 30 31 32
7 7 7 7 7 8 7 6 6 6 6 6 6 7 9 10 10 8 7 5 4 3 2 2 2 2 1 1 2 4 5 6 7 8 9 9 10 10 10 11 11 11 11 12 13 13 14 15 16 17 18 19 20 21 22 23 25 26 28 30 31 32 33
9 9 9 9 8 8 7 7 6 7 8 7 8 9 10 10 9 7 5 4 3 3 2 2 2 2 0 2 3 4 5 6 7 8 9 9 9 9 10 10 10 11 11 12 13 14 14 15 15 16 17 18 20 21 22 24 26 27 29 31 32 33 33